FW3681 Weather Reports


Display with metric or nautical units.
time (UTC)temp
F
wind
direction
speed
MPH
gust
MPH
rain 1hr
in
rain 24hr
in
rain mn
in
humidity
%
barometer
mb
20260902184858 97 22 4.0 8.0 0.00 0.00 0.00 45 1016.8
20260902184658 97 22 6.0 8.0 0.00 0.00 0.00 45 1016.7
20260902184557 97 352 7.0 8.0 0.00 0.00 0.00 45 1016.6
20260902184358 97 332 2.0 8.0 0.00 0.00 0.00 45 1016.7
20260902184258 97 27 3.0 8.0 0.00 0.00 0.00 45 1016.7
20260902184158 97 358 5.0 8.0 0.00 0.00 0.00 46 1016.8
20260902184058 97 339 7.0 8.0 0.00 0.00 0.00 45 1016.8
20260902183758 97 313 3.0 7.0 0.00 0.00 0.00 44 1016.9
20260902183558 97 30 2.0 7.0 0.00 0.00 0.00 44 1016.8
20260902183500 97 353 3.0 7.0 0.00 0.00 0.00 44 1016.8
20260902183358 97 10 2.0 7.0 0.00 0.00 0.00 45 1016.8
20260902183258 97 17 0.0 7.0 0.00 0.00 0.00 44 1016.9
20260902183158 97 339 3.0 7.0 0.00 0.00 0.00 44 1016.9
20260902183058 97 333 2.0 7.0 0.00 0.00 0.00 44 1016.9
20260902182858 97 20 4.0 8.0 0.00 0.00 0.00 42 1016.8
20260902182759 97 75 4.0 8.0 0.00 0.00 0.00 43 1016.9
20260902182558 97 11 3.0 8.0 0.00 0.00 0.00 46 1016.9
20260902182500 96 355 3.0 8.0 0.00 0.00 0.00 46 1016.8
20260902182159 96 357 5.0 8.0 0.00 0.00 0.00 46 1017.0
20260902182057 96 331 8.0 8.0 0.00 0.00 0.00 47 1016.9
20260902182000 96 10 5.0 8.0 0.00 0.00 0.00 47 1016.9
20260902181858 96 13 3.0 8.0 0.00 0.00 0.00 46 1016.9
20260902181658 96 345 6.0 8.0 0.00 0.00 0.00 47 1016.9
20260902181558 96 349 5.0 8.0 0.00 0.00 0.00 46 1017.0
20260902181459 96 341 5.0 8.0 0.00 0.00 0.00 46 1016.9
20260902181358 96 342 5.0 8.0 0.00 0.00 0.00 46 1017.0
20260902181257 95 360 5.0 9.0 0.00 0.00 0.00 46 1016.9
20260902181059 96 11 4.0 9.0 0.00 0.00 0.00 46 1017.0
20260902181003 96 316 3.0 9.0 0.00 0.00 0.00 46 1017.0
20260902180858 96 19 3.0 9.0 0.00 0.00 0.00 47 1017.0
20260902180758 96 345 6.0 9.0 0.00 0.00 0.00 47 1017.0
20260902180657 96 357 4.0 9.0 0.00 0.00 0.00 47 1017.1
20260902180559 95 3 5.0 9.0 0.00 0.00 0.00 48 1017.1
20260902180459 95 13 6.0 9.0 0.00 0.00 0.00 47 1017.0
20260902180259 95 4 3.0 8.0 0.00 0.00 0.00 46 1017.1
20260902180058 96 38 1.0 8.0 0.00 0.00 0.00 45 1017.1
20260902180001 96 8 3.0 8.0 0.00 0.00 0.00 45 1017.2
20260902175758 95 4 6.0 8.0 0.00 0.00 0.00 47 1017.3
20260902175658 95 17 2.0 8.0 0.00 0.00 0.00 45 1017.2
20260902175559 95 6 2.0 8.0 0.00 0.00 0.00 46 1017.3
20260902175500 95 8 2.0 8.0 0.00 0.00 0.00 46 1017.4
20260902175358 96 345 4.0 8.0 0.00 0.00 0.00 46 1017.3
20260902175257 96 354 4.0 8.0 0.00 0.00 0.00 46 1017.3
20260902175157 96 23 4.0 8.0 0.00 0.00 0.00 47 1017.3
20260902175058 97 352 7.0 8.0 0.00 0.00 0.00 47 1017.3
20260902175003 96 44 4.0 9.0 0.00 0.00 0.00 47 1017.2
20260902174857 96 357 6.0 9.0 0.00 0.00 0.00 47 1017.3
20260902174758 95 360 5.0 9.0 0.00 0.00 0.00 47 1017.2
20260902174658 95 357 6.0 9.0 0.00 0.00 0.00 47 1017.3
20260902174557 94 358 5.0 9.0 0.00 0.00 0.00 48 1017.3
20260902174459 94 335 6.0 9.0 0.00 0.00 0.00 48 1017.3
20260902174259 94 338 7.0 10.0 0.00 0.00 0.00 47 1017.4
20260902174158 95 345 7.0 10.0 0.00 0.00 0.00 47 1017.4
20260902174058 95 345 6.0 10.0 0.00 0.00 0.00 47 1017.4
20260902174003 95 329 2.0 10.0 0.00 0.00 0.00 45 1017.4
20260902173858 95 68 3.0 10.0 0.00 0.00 0.00 45 1017.5
20260902173759 94 22 3.0 10.0 0.00 0.00 0.00 46 1017.5
20260902173659 94 6 3.0 10.0 0.00 0.00 0.00 47 1017.5
20260902173558 94 105 2.0 10.0 0.00 0.00 0.00 47 1017.6
20260902173359 94 358 2.0 7.0 0.00 0.00 0.00 48 1017.6
20260902173258 94 38 3.0 7.0 0.00 0.00 0.00 49 1017.5
20260902173157 94 63 2.0 7.0 0.00 0.00 0.00 50 1017.6
20260902173058 93 1 7.0 7.0 0.00 0.00 0.00 51 1017.5
20260902173002 93 346 5.0 8.0 0.00 0.00 0.00 52 1017.5
20260902172758 93 319 4.0 8.0 0.00 0.00 0.00 51 1017.5
20260902172558 94 278 1.0 8.0 0.00 0.00 0.00 49 1017.5
20260902172459 94 30 1.0 8.0 0.00 0.00 0.00 49 1017.7
20260902172358 95 46 3.0 8.0 0.00 0.00 0.00 49 1017.7
20260902172258 95 23 4.0 8.0 0.00 0.00 0.00 49 1017.7
20260902172158 95 22 3.0 8.0 0.00 0.00 0.00 49 1017.6
20260902172058 95 337 3.0 8.0 0.00 0.00 0.00 49 1017.7
20260902172004 95 350 6.0 8.0 0.00 0.00 0.00 49 1017.7
20260902171858 95 10 6.0 8.0 0.00 0.00 0.00 50 1017.6
20260902171758 96 100 4.0 8.0 0.00 0.00 0.00 48 1017.8
20260902171658 96 51 4.0 8.0 0.00 0.00 0.00 49 1017.6
20260902171558 96 85 4.0 8.0 0.00 0.00 0.00 49 1017.7
20260902171459 96 1 5.0 8.0 0.00 0.00 0.00 50 1017.5
20260902171357 95 335 5.0 8.0 0.00 0.00 0.00 50 1017.7
20260902171259 95 4 6.0 8.0 0.00 0.00 0.00 50 1017.7
20260902171158 95 3 7.0 8.0 0.00 0.00 0.00 49 1017.6
20260902171057 95 4 5.0 8.0 0.00 0.00 0.00 49 1017.7
20260902170857 95 358 3.0 8.0 0.00 0.00 0.00 49 1017.8
20260902170759 95 20 3.0 8.0 0.00 0.00 0.00 51 1017.8
20260902170658 95 330 3.0 8.0 0.00 0.00 0.00 50 1017.8
20260902170558 95 357 3.0 8.0 0.00 0.00 0.00 50 1017.8
20260902170501 95 344 3.0 8.0 0.00 0.00 0.00 51 1017.9
20260902170357 95 13 6.0 8.0 0.00 0.00 0.00 52 1017.9
20260902170259 95 3 6.0 8.0 0.00 0.00 0.00 51 1017.9
20260902170158 95 356 6.0 8.0 0.00 0.00 0.00 50 1017.9
20260902170058 95 342 8.0 8.0 0.00 0.00 0.00 50 1017.9
20260902165858 95 10 7.0 8.0 0.00 0.00 0.00 49 1017.9
20260902165758 95 350 5.0 8.0 0.00 0.00 0.00 49 1018.0
20260902165658 95 355 6.0 6.0 0.00 0.00 0.00 50 1018.0
20260902165559 94 333 4.0 6.0 0.00 0.00 0.00 51 1018.1
20260902165500 94 70 1.0 6.0 0.00 0.00 0.00 53 1018.1
20260902165359 94 19 3.0 6.0 0.00 0.00 0.00 53 1018.2
20260902165257 94 345 5.0 6.0 0.00 0.00 0.00 53 1018.1
20260902165057 94 318 3.0 6.0 0.00 0.00 0.00 53 1018.2
20260902164858 93 359 5.0 6.0 0.00 0.00 0.00 53 1018.2
20260902164758 93 4 6.0 6.0 0.00 0.00 0.00 53 1018.2
20260902164657 93 338 3.0 6.0 0.00 0.00 0.00 54 1018.2
20260902164500 92 4 2.0 7.0 0.00 0.00 0.00 54 1018.2
20260902164358 92 327 3.0 7.0 0.00 0.00 0.00 54 1018.2
20260902164259 92 342 5.0 8.0 0.00 0.00 0.00 52 1018.2
20260902164158 93 338 3.0 8.0 0.00 0.00 0.00 53 1018.2
20260902164059 93 41 4.0 8.0 0.00 0.00 0.00 53 1018.3
20260902164003 93 353 5.0 8.0 0.00 0.00 0.00 52 1018.3
20260902163858 93 77 2.0 8.0 0.00 0.00 0.00 53 1018.3
20260902163757 93 13 1.0 8.0 0.00 0.00 0.00 53 1018.4
20260902163658 93 334 6.0 8.0 0.00 0.00 0.00 53 1018.3
20260902163558 93 54 2.0 8.0 0.00 0.00 0.00 53 1018.3
20260902163459 94 356 2.0 8.0 0.00 0.00 0.00 53 1018.4
20260902163358 94 11 6.0 8.0 0.00 0.00 0.00 54 1018.3
20260902163257 94 5 5.0 8.0 0.00 0.00 0.00 54 1018.4
20260902163158 94 329 5.0 8.0 0.00 0.00 0.00 54 1018.4
20260902163057 93 342 4.0 8.0 0.00 0.00 0.00 55 1018.4
20260902163000 93 351 5.0 8.0 0.00 0.00 0.00 54 1018.5
20260902162858 93 343 5.0 8.0 0.00 0.00 0.00 54 1018.5
20260902162759 93 331 4.0 8.0 0.00 0.00 0.00 54 1018.5
20260902162558 93 355 6.0 8.0 0.00 0.00 0.00 55 1018.4
20260902162458 93 25 4.0 8.0 0.00 0.00 0.00 54 1018.4
20260902162358 93 30 2.0 8.0 0.00 0.00 0.00 54 1018.4
20260902162258 93 11 2.0 8.0 0.00 0.00 0.00 56 1018.5
20260902162159 93 23 5.0 7.0 0.00 0.00 0.00 55 1018.4
20260902162058 92 355 3.0 7.0 0.00 0.00 0.00 55 1018.4
20260902162001 92 50 3.0 7.0 0.00 0.00 0.00 56 1018.5
20260902161858 92 1 6.0 7.0 0.00 0.00 0.00 56 1018.5
20260902161658 92 66 4.0 8.0 0.00 0.00 0.00 57 1018.5
20260902161558 92 344 5.0 8.0 0.00 0.00 0.00 57 1018.6
20260902161459 92 288 1.0 8.0 0.00 0.00 0.00 57 1018.5
20260902161358 92 1 1.0 8.0 0.00 0.00 0.00 56 1018.5
20260902161258 92 62 4.0 8.0 0.00 0.00 0.00 56 1018.6
20260902161059 92 348 5.0 8.0 0.00 0.00 0.00 56 1018.6
20260902160859 92 13 7.0 8.0 0.00 0.00 0.00 56 1018.5
20260902160757 92 4 3.0 8.0 0.00 0.00 0.00 55 1018.5
20260902160658 93 24 3.0 8.0 0.00 0.00 0.00 55 1018.5
20260902160500 93 20 3.0 8.0 0.00 0.00 0.00 58 1018.5
20260902160358 92 1 6.0 8.0 0.00 0.00 0.00 58 1018.5
20260902160258 92 8 8.0 8.0 0.00 0.00 0.00 57 1018.5
20260902160159 92 3 6.0 8.0 0.00 0.00 0.00 58 1018.6
20260902160057 92 355 3.0 8.0 0.00 0.00 0.00 57 1018.6
20260902160005 92 257 2.0 8.0 0.00 0.00 0.00 57 1018.6
20260902155859 92 13 3.0 8.0 0.00 0.00 0.00 57 1018.5
20260902155658 92 1 3.0 9.0 0.00 0.00 0.00 57 1018.5
20260902155557 92 346 4.0 9.0 0.00 0.00 0.00 57 1018.5
20260902155358 92 15 3.0 9.0 0.00 0.00 0.00 57 1018.6
20260902155258 92 319 4.0 9.0 0.00 0.00 0.00 58 1018.6
20260902155058 91 343 6.0 9.0 0.00 0.00 0.00 58 1018.6
20260902155000 92 336 8.0 9.0 0.00 0.00 0.00 59 1018.6
20260902154758 91 329 5.0 8.0 0.00 0.00 0.00 60 1018.7
20260902154658 91 348 4.0 6.0 0.00 0.00 0.00 59 1018.7
20260902154459 91 15 1.0 9.0 0.00 0.00 0.00 60 1018.7
20260902154359 91 339 4.0 10.0 0.00 0.00 0.00 60 1018.8
20260902154258 90 38 3.0 10.0 0.00 0.00 0.00 60 1018.7
20260902154158 90 65 1.0 10.0 0.00 0.00 0.00 59 1018.7
20260902154059 90 66 2.0 10.0 0.00 0.00 0.00 60 1018.7
20260902154001 90 338 3.0 10.0 0.00 0.00 0.00 61 1018.8
20260902153859 90 335 4.0 10.0 0.00 0.00 0.00 60 1018.8
20260902153758 90 344 6.0 10.0 0.00 0.00 0.00 59 1018.8
20260902153559 91 332 6.0 10.0 0.00 0.00 0.00 59 1018.8
20260902153459 91 339 6.0 10.0 0.00 0.00 0.00 59 1018.7
20260902153358 91 338 3.0 7.0 0.00 0.00 0.00 60 1018.7
20260902153258 91 330 6.0 7.0 0.00 0.00 0.00 59 1018.7
20260902153159 91 332 3.0 7.0 0.00 0.00 0.00 60 1018.7
20260902153000 91 316 6.0 9.0 0.00 0.00 0.00 61 1018.8
20260902152859 91 333 3.0 9.0 0.00 0.00 0.00 62 1018.8
20260902152757 90 6 7.0 9.0 0.00 0.00 0.00 63 1018.7
20260902152659 89 10 2.0 9.0 0.00 0.00 0.00 63 1018.8
20260902152559 89 338 5.0 9.0 0.00 0.00 0.00 63 1018.8
20260902152500 89 323 4.0 9.0 0.00 0.00 0.00 63 1018.7
20260902152358 89 330 4.0 9.0 0.00 0.00 0.00 63 1018.7
20260902152258 89 336 5.0 9.0 0.00 0.00 0.00 62 1018.7
20260902152158 89 327 5.0 9.0 0.00 0.00 0.00 62 1018.7
20260902152003 89 327 6.0 9.0 0.00 0.00 0.00 63 1018.7
20260902151757 89 330 6.0 9.0 0.00 0.00 0.00 63 1018.7
20260902151657 89 331 3.0 9.0 0.00 0.00 0.00 63 1018.7
20260902151559 89 327 4.0 9.0 0.00 0.00 0.00 62 1018.7
20260902151459 89 343 6.0 9.0 0.00 0.00 0.00 62 1018.7
20260902151358 89 350 5.0 8.0 0.00 0.00 0.00 63 1018.7
20260902151258 89 343 6.0 8.0 0.00 0.00 0.00 63 1018.7
20260902151158 89 341 4.0 8.0 0.00 0.00 0.00 63 1018.7
20260902151058 89 345 8.0 9.0 0.00 0.00 0.00 62 1018.7
20260902151003 89 332 7.0 9.0 0.00 0.00 0.00 62 1018.7
20260902150759 90 343 5.0 9.0 0.00 0.00 0.00 62 1018.7
20260902150658 90 349 6.0 9.0 0.00 0.00 0.00 63 1018.6
20260902150558 89 345 4.0 9.0 0.00 0.00 0.00 63 1018.7
20260902150500 89 326 3.0 9.0 0.00 0.00 0.00 63 1018.5
20260902150358 89 353 4.0 9.0 0.00 0.00 0.00 62 1018.6
20260902150259 89 328 5.0 9.0 0.00 0.00 0.00 61 1018.5
20260902150200 90 335 4.0 9.0 0.00 0.00 0.00 62 1018.6
20260902150059 90 334 4.0 8.0 0.00 0.00 0.00 62 1018.6
20260902150002 89 333 6.0 8.0 0.00 0.00 0.00 63 1018.6
20260902145758 88 1 5.0 8.0 0.00 0.00 0.00 64 1018.5
20260902145658 88 359 3.0 8.0 0.00 0.00 0.00 64 1018.5
20260902145558 88 349 7.0 8.0 0.00 0.00 0.00 64 1018.7
20260902145500 88 333 5.0 7.0 0.00 0.00 0.00 64 1018.7
20260902145358 89 345 5.0 7.0 0.00 0.00 0.00 64 1018.7
20260902145158 89 323 5.0 7.0 0.00 0.00 0.00 65 1018.7
20260902145057 89 110 1.0 7.0 0.00 0.00 0.00 66 1018.7
20260902144858 88 340 4.0 7.0 0.00 0.00 0.00 67 1018.7
20260902144659 88 333 4.0 7.0 0.00 0.00 0.00 68 1018.6
20260902144558 88 4 5.0 7.0 0.00 0.00 0.00 69 1018.6
20260902144500 87 352 3.0 7.0 0.00 0.00 0.00 69 1018.6
20260902144358 87 22 2.0 7.0 0.00 0.00 0.00 69 1018.6
20260902144258 87 336 5.0 7.0 0.00 0.00 0.00 69 1018.5
20260902144159 87 345 7.0 7.0 0.00 0.00 0.00 69 1018.5
20260902144057 87 345 3.0 8.0 0.00 0.00 0.00 71 1018.6
20260902144003 87 340 6.0 8.0 0.00 0.00 0.00 70 1018.6
20260902143858 86 341 6.0 8.0 0.00 0.00 0.00 70 1018.5
20260902143758 86 341 5.0 8.0 0.00 0.00 0.00 70 1018.5
20260902143658 86 350 5.0 8.0 0.00 0.00 0.00 70 1018.5
20260902143557 86 319 4.0 8.0 0.00 0.00 0.00 70 1018.5
20260902143458 86 340 5.0 8.0 0.00 0.00 0.00 70 1018.6
20260902143358 86 335 5.0 8.0 0.00 0.00 0.00 70 1018.6
20260902143258 87 339 6.0 8.0 0.00 0.00 0.00 69 1018.5
20260902143158 87 342 5.0 8.0 0.00 0.00 0.00 70 1018.5
20260902143001 86 327 5.0 8.0 0.00 0.00 0.00 72 1018.5
20260902142857 86 330 3.0 8.0 0.00 0.00 0.00 72 1018.5
20260902142657 86 323 4.0 9.0 0.00 0.00 0.00 72 1018.6
20260902142559 85 333 5.0 9.0 0.00 0.00 0.00 73 1018.6
20260902142459 85 333 4.0 9.0 0.00 0.00 0.00 74 1018.6
20260902142358 85 350 4.0 9.0 0.00 0.00 0.00 73 1018.7
20260902142257 85 326 5.0 9.0 0.00 0.00 0.00 74 1018.7
20260902142058 85 350 5.0 9.0 0.00 0.00 0.00 74 1018.7
20260902142002 85 352 3.0 9.0 0.00 0.00 0.00 74 1018.7
20260902141859 84 357 4.0 9.0 0.00 0.00 0.00 74 1018.7
20260902141758 84 333 5.0 9.0 0.00 0.00 0.00 74 1018.8
20260902141558 84 340 4.0 6.0 0.00 0.00 0.00 74 1018.7
20260902141500 84 333 4.0 6.0 0.00 0.00 0.00 74 1018.7
20260902141257 85 355 5.0 6.0 0.00 0.00 0.00 75 1018.7
20260902141058 84 346 4.0 6.0 0.00 0.00 0.00 75 1018.7
20260902141003 85 347 4.0 6.0 0.00 0.00 0.00 75 1018.6
20260902140758 84 5 5.0 6.0 0.00 0.00 0.00 77 1018.7
20260902140659 84 323 3.0 6.0 0.00 0.00 0.00 77 1018.6
20260902140558 83 348 3.0 6.0 0.00 0.00 0.00 77 1018.6
20260902140502 83 354 4.0 6.0 0.00 0.00 0.00 78 1018.6
20260902140358 83 341 4.0 6.0 0.00 0.00 0.00 78 1018.7
20260902140158 83 338 3.0 5.0 0.00 0.00 0.00 79 1018.6
20260902140059 83 329 3.0 5.0 0.00 0.00 0.00 79 1018.6
20260902135858 82 326 1.0 5.0 0.00 0.00 0.00 80 1018.7
20260902135756 82 342 2.0 5.0 0.00 0.00 0.00 80 1018.6
20260902135657 82 345 3.0 5.0 0.00 0.00 0.00 80 1018.7
20260902135557 81 331 3.0 5.0 0.00 0.00 0.00 81 1018.8
20260902135358 81 347 4.0 5.0 0.00 0.00 0.00 81 1018.7
20260902135258 81 338 4.0 4.0 0.00 0.00 0.00 82 1018.7
20260902135157 81 359 2.0 4.0 0.00 0.00 0.00 82 1018.7
20260902134858 80 360 3.0 4.0 0.00 0.00 0.00 83 1018.7
20260902134756 80 359 2.0 4.0 0.00 0.00 0.00 84 1018.7
20260902134657 80 338 2.0 4.0 0.00 0.00 0.00 84 1018.8
20260902134459 80 333 3.0 4.0 0.00 0.00 0.00 84 1018.8
20260902134358 79 1 3.0 4.0 0.00 0.00 0.00 85 1018.8
20260902134257 79 344 1.0 3.0 0.00 0.00 0.00 85 1018.7
20260902134157 79 345 2.0 3.0 0.00 0.00 0.00 86 1018.8
20260902134058 79 338 0.0 3.0 0.00 0.00 0.00 86 1018.7
20260902134000 79 335 1.0 3.0 0.00 0.00 0.00 86 1018.8
20260902133858 78 317 1.0 3.0 0.00 0.00 0.00 86 1018.7
20260902133757 78 298 2.0 3.0 0.00 0.00 0.00 86 1018.7
20260902133657 78 322 2.0 3.0 0.00 0.00 0.00 87 1018.7
20260902133557 78 335 2.0 3.0 0.00 0.00 0.00 87 1018.7
20260902133458 78 311 2.0 3.0 0.00 0.00 0.00 87 1018.8
20260902133357 78 307 0.0 4.0 0.00 0.00 0.00 87 1018.6
20260902133256 78 316 2.0 4.0 0.00 0.00 0.00 87 1018.7
20260902133157 78 309 2.0 4.0 0.00 0.00 0.00 87 1018.7
20260902133058 77 300 1.0 4.0 0.00 0.00 0.00 87 1018.6
20260902133000 77 292 1.0 4.0 0.00 0.00 0.00 87 1018.6
20260902132857 77 301 2.0 4.0 0.00 0.00 0.00 87 1018.7
20260902132757 77 286 2.0 4.0 0.00 0.00 0.00 87 1018.7
20260902132657 77 286 2.0 4.0 0.00 0.00 0.00 87 1018.7
20260902132557 77 321 2.0 4.0 0.00 0.00 0.00 87 1018.7
20260902132459 77 321 2.0 4.0 0.00 0.00 0.00 87 1018.7
20260902132056 77 307 2.0 3.0 0.00 0.00 0.00 88 1018.6
20260902132000 77 312 2.0 3.0 0.00 0.00 0.00 88 1018.7
20260902131857 77 307 1.0 3.0 0.00 0.00 0.00 88 1018.7
20260902131757 77 321 2.0 3.0 0.00 0.00 0.00 88 1018.7
20260902131658 77 296 2.0 3.0 0.00 0.00 0.00 87 1018.7
20260902131556 77 294 2.0 3.0 0.00 0.00 0.00 87 1018.6
20260902131459 77 307 1.0 3.0 0.00 0.00 0.00 88 1018.7
20260902131357 77 300 3.0 3.0 0.00 0.00 0.00 88 1018.7
20260902131257 77 300 2.0 2.0 0.00 0.00 0.00 88 1018.7
20260902131157 77 307 2.0 3.0 0.00 0.00 0.00 88 1018.7
20260902131057 77 286 2.0 3.0 0.00 0.00 0.00 88 1018.7
20260902131000 77 300 2.0 3.0 0.00 0.00 0.00 88 1018.7
20260902130857 77 286 2.0 3.0 0.00 0.00 0.00 88 1018.7
20260902130757 77 284 1.0 3.0 0.00 0.00 0.00 87 1018.7
20260902130458 77 288 0.0 3.0 0.00 0.00 0.00 87 1018.7
20260902130358 77 268 2.0 3.0 0.00 0.00 0.00 87 1018.8
20260902130257 77 316 2.0 3.0 0.00 0.00 0.00 87 1018.7
20260902130158 77 335 2.0 3.0 0.00 0.00 0.00 87 1018.8
20260902130058 77 296 2.0 3.0 0.00 0.00 0.00 88 1018.7
20260902130000 77 311 2.0 3.0 0.00 0.00 0.00 88 1018.7
20260902125857 77 285 0.0 3.0 0.00 0.00 0.00 88 1018.7
20260902125757 77 280 2.0 3.0 0.00 0.00 0.00 88 1018.8
20260902125657 77 295 0.0 2.0 0.00 0.00 0.00 88 1018.7
20260902125556 77 300 0.0 2.0 0.00 0.00 0.00 88 1018.7
20260902125458 77 303 0.0 2.0 0.00 0.00 0.00 88 1018.7
20260902125357 77 303 0.0 3.0 0.00 0.00 0.00 88 1018.7
20260902125257 77 303 0.0 3.0 0.00 0.00 0.00 88 1018.7
20260902125157 77 288 0.0 3.0 0.00 0.00 0.00 88 1018.7
20260902125058 77 296 0.0 3.0 0.00 0.00 0.00 88 1018.7
20260902125000 77 310 0.0 3.0 0.00 0.00 0.00 88 1018.7
20260902124857 77 301 0.0 3.0 0.00 0.00 0.00 89 1018.7
20260902124757 77 307 0.0 3.0 0.00 0.00 0.00 89 1018.7
20260902124656 77 319 0.0 3.0 0.00 0.00 0.00 89 1018.6
20260902124558 77 303 1.0 3.0 0.00 0.00 0.00 89 1018.6
20260902124458 76 317 1.0 3.0 0.00 0.00 0.00 89 1018.5
20260902124358 76 316 0.0 3.0 0.00 0.00 0.00 89 1018.5
20260902124256 76 296 3.0 3.0 0.00 0.00 0.00 89 1018.5
20260902124157 76 314 1.0 3.0 0.00 0.00 0.00 89 1018.5
20260902124056 76 298 2.0 3.0 0.00 0.00 0.00 89 1018.5
20260902123959 76 317 2.0 3.0 0.00 0.00 0.00 90 1018.6
20260902123859 76 314 3.0 3.0 0.00 0.00 0.00 90 1018.5
20260902123756 76 300 3.0 3.0 0.00 0.00 0.00 90 1018.5
20260902123656 76 302 3.0 3.0 0.00 0.00 0.00 90 1018.4
20260902123458 76 300 2.0 3.0 0.00 0.00 0.00 90 1018.4
20260902123358 76 296 2.0 3.0 0.00 0.00 0.00 90 1018.5
20260902123157 76 307 2.0 3.0 0.00 0.00 0.00 90 1018.4
20260902123058 76 307 3.0 3.0 0.00 0.00 0.00 90 1018.4
20260902123000 75 301 2.0 3.0 0.00 0.00 0.00 90 1018.4
20260902122856 75 290 3.0 3.0 0.00 0.00 0.00 90 1018.4
20260902122756 75 300 2.0 3.0 0.00 0.00 0.00 90 1018.4
20260902122657 75 304 2.0 3.0 0.00 0.00 0.00 90 1018.5
20260902122557 75 312 2.0 3.0 0.00 0.00 0.00 90 1018.5
20260902122458 75 309 2.0 3.0 0.00 0.00 0.00 90 1018.5
20260902122357 75 311 2.0 3.0 0.00 0.00 0.00 90 1018.5
20260902122257 75 319 2.0 3.0 0.00 0.00 0.00 90 1018.5
20260902122156 75 326 2.0 3.0 0.00 0.00 0.00 90 1018.5
20260902122000 75 316 2.0 3.0 0.00 0.00 0.00 90 1018.5
20260902121857 75 330 1.0 2.0 0.00 0.00 0.00 90 1018.4
20260902121757 75 304 1.0 2.0 0.00 0.00 0.00 90 1018.5
20260902121657 75 321 2.0 2.0 0.00 0.00 0.00 90 1018.4
20260902121558 75 310 1.0 3.0 0.00 0.00 0.00 90 1018.5
20260902121459 75 344 1.0 3.0 0.00 0.00 0.00 90 1018.5
20260902121357 75 302 1.0 3.0 0.00 0.00 0.00 90 1018.4
20260902121257 75 352 1.0 3.0 0.00 0.00 0.00 90 1018.5
20260902121157 75 340 2.0 3.0 0.00 0.00 0.00 90 1018.4
20260902121057 75 340 0.0 3.0 0.00 0.00 0.00 90 1018.4
20260902120959 75 356 0.0 3.0 0.00 0.00 0.00 90 1018.4
20260902120857 75 342 0.0 3.0 0.00 0.00 0.00 90 1018.4
20260902120757 75 345 2.0 3.0 0.00 0.00 0.00 90 1018.4
20260902120657 75 359 2.0 3.0 0.00 0.00 0.00 90 1018.4
20260902120557 75 351 0.0 2.0 0.00 0.00 0.00 91 1018.4
20260902120458 75 335 0.0 2.0 0.00 0.00 0.00 91 1018.3
20260902120358 75 354 0.0 2.0 0.00 0.00 0.00 91 1018.4
20260902120157 75 340 0.0 2.0 0.00 0.00 0.00 91 1018.3
20260902120057 75 328 2.0 2.0 0.00 0.00 0.00 91 1018.3
20260902120002 75 331 2.0 2.0 0.00 0.00 0.00 91 1018.3
20260902115858 75 326 0.0 2.0 0.00 0.00 0.00 91 1018.3
20260902115657 74 311 2.0 2.0 0.00 0.00 0.00 91 1018.2
20260902115558 74 360 1.0 2.0 0.00 0.00 0.00 91 1018.2
20260902115500 74 1 0.0 2.0 0.00 0.00 0.00 91 1018.2
20260902115358 74 360 0.0 2.0 0.00 0.00 0.00 91 1018.2
20260902115159 74 340 0.0 2.0 0.00 0.00 0.00 91 1018.2
20260902115057 74 333 1.0 2.0 0.00 0.00 0.00 91 1018.2
20260902115001 74 335 0.0 2.0 0.00 0.00 0.00 91 1018.2
20260902114858 74 342 2.0 2.0 0.00 0.00 0.00 91 1018.2
20260902114758 74 333 2.0 2.0 0.00 0.00 0.00 91 1018.1
20260902114658 74 342 2.0 2.0 0.00 0.00 0.00 91 1018.2
20260902114558 74 319 1.0 2.0 0.00 0.00 0.00 91 1018.2
20260902114459 74 340 1.0 2.0 0.00 0.00 0.00 91 1018.0
20260902114358 74 328 2.0 2.0 0.00 0.00 0.00 91 1018.1
20260902114258 74 331 1.0 2.0 0.00 0.00 0.00 90 1018.1
20260902114158 74 330 0.0 2.0 0.00 0.00 0.00 90 1018.1
20260902114058 74 316 0.0 2.0 0.00 0.00 0.00 90 1018.1
20260902113859 74 349 0.0 2.0 0.00 0.00 0.00 90 1018.1
20260902113759 74 323 0.0 2.0 0.00 0.00 0.00 90 1018.1
20260902113658 74 319 0.0 2.0 0.00 0.00 0.00 90 1018.0
20260902113558 74 337 0.0 2.0 0.00 0.00 0.00 90 1018.0
20260902113359 74 328 0.0 2.0 0.00 0.00 0.00 90 1017.9
20260902113258 74 321 0.0 2.0 0.00 0.00 0.00 90 1018.0
20260902113159 74 319 0.0 2.0 0.00 0.00 0.00 90 1018.0
20260902113058 74 326 0.0 2.0 0.00 0.00 0.00 90 1017.9
20260902113004 74 323 0.0 2.0 0.00 0.00 0.00 90 1017.9
20260902112858 74 323 0.0 2.0 0.00 0.00 0.00 90 1017.9
20260902112758 74 359 0.0 2.0 0.00 0.00 0.00 90 1017.9
20260902112658 74 323 0.0 3.0 0.00 0.00 0.00 90 1017.9
20260902112557 74 330 0.0 3.0 0.00 0.00 0.00 90 1018.0
20260902112459 74 314 0.0 3.0 0.00 0.00 0.00 90 1017.9
20260902112357 74 300 1.0 3.0 0.00 0.00 0.00 90 1017.9
20260902112158 74 345 1.0 3.0 0.00 0.00 0.00 90 1018.0
20260902112057 74 349 0.0 3.0 0.00 0.00 0.00 90 1017.9
20260902112003 74 354 2.0 3.0 0.00 0.00 0.00 90 1017.9
20260902111757 74 344 2.0 3.0 0.00 0.00 0.00 90 1017.9
20260902111558 74 338 2.0 3.0 0.00 0.00 0.00 90 1017.9
20260902111459 74 331 1.0 3.0 0.00 0.00 0.00 90 1017.8
20260902111358 74 330 0.0 3.0 0.00 0.00 0.00 90 1017.9
20260902111259 74 330 0.0 3.0 0.00 0.00 0.00 90 1017.9
20260902111159 74 337 1.0 3.0 0.00 0.00 0.00 90 1017.8
20260902111059 74 338 1.0 3.0 0.00 0.00 0.00 90 1017.9
20260902110859 74 328 2.0 3.0 0.00 0.00 0.00 90 1017.8
20260902110658 74 319 2.0 3.0 0.00 0.00 0.00 90 1017.9
20260902110357 74 328 2.0 3.0 0.00 0.00 0.00 90 1017.8
20260902110258 74 328 0.0 3.0 0.00 0.00 0.00 90 1017.8
20260902110158 74 328 2.0 3.0 0.00 0.00 0.00 90 1017.8
20260902110100 74 324 2.0 3.0 0.00 0.00 0.00 90 1017.8
20260902110005 74 328 1.0 3.0 0.00 0.00 0.00 90 1017.8
20260902105858 74 353 1.0 3.0 0.00 0.00 0.00 90 1017.7
20260902105757 74 338 2.0 3.0 0.00 0.00 0.00 90 1017.7
20260902105657 74 328 2.0 3.0 0.00 0.00 0.00 90 1017.8
20260902105458 74 356 0.0 3.0 0.00 0.00 0.00 90 1017.8
20260902105357 74 358 2.0 3.0 0.00 0.00 0.00 90 1017.7
20260902105256 74 347 2.0 2.0 0.00 0.00 0.00 90 1017.7
20260902105157 74 328 2.0 2.0 0.00 0.00 0.00 90 1017.7
20260902105057 74 342 2.0 2.0 0.00 0.00 0.00 90 1017.7
20260902104959 74 335 2.0 2.0 0.00 0.00 0.00 90 1017.7
20260902104858 74 338 2.0 2.0 0.00 0.00 0.00 90 1017.7
20260902104657 74 338 2.0 3.0 0.00 0.00 0.00 90 1017.6
20260902104557 74 335 2.0 3.0 0.00 0.00 0.00 90 1017.7
20260902104357 74 337 2.0 3.0 0.00 0.00 0.00 90 1017.6
20260902104257 74 337 2.0 3.0 0.00 0.00 0.00 90 1017.6
20260902104157 74 328 1.0 3.0 0.00 0.00 0.00 90 1017.6
20260902104057 74 317 2.0 3.0 0.00 0.00 0.00 90 1017.7
20260902103959 74 326 2.0 3.0 0.00 0.00 0.00 90 1017.7
20260902103857 74 324 2.0 3.0 0.00 0.00 0.00 90 1017.6
20260902103757 74 319 1.0 3.0 0.00 0.00 0.00 90 1017.7
20260902103657 74 330 2.0 3.0 0.00 0.00 0.00 90 1017.7
20260902103556 74 323 2.0 3.0 0.00 0.00 0.00 90 1017.6
20260902103458 74 330 1.0 3.0 0.00 0.00 0.00 90 1017.6
20260902103257 74 326 2.0 3.0 0.00 0.00 0.00 90 1017.7
20260902103157 74 338 1.0 3.0 0.00 0.00 0.00 90 1017.6
20260902103057 74 351 2.0 3.0 0.00 0.00 0.00 90 1017.6
20260902103000 74 328 2.0 3.0 0.00 0.00 0.00 90 1017.6
20260902102856 74 347 2.0 2.0 0.00 0.00 0.00 90 1017.6
20260902102757 74 335 0.0 2.0 0.00 0.00 0.00 90 1017.6
20260902102657 74 335 2.0 2.0 0.00 0.00 0.00 90 1017.6
20260902102557 74 328 1.0 2.0 0.00 0.00 0.00 90 1017.6
20260902102458 74 338 2.0 2.0 0.00 0.00 0.00 90 1017.6
20260902102357 74 337 2.0 2.0 0.00 0.00 0.00 90 1017.6
20260902102257 74 338 1.0 2.0 0.00 0.00 0.00 90 1017.5
20260902102157 74 340 0.0 2.0 0.00 0.00 0.00 90 1017.6
20260902102057 74 342 0.0 2.0 0.00 0.00 0.00 90 1017.6
20260902101757 74 347 0.0 2.0 0.00 0.00 0.00 90 1017.6
20260902101656 74 321 0.0 2.0 0.00 0.00 0.00 89 1017.5
20260902101557 74 321 0.0 2.0 0.00 0.00 0.00 89 1017.6
20260902101458 74 321 0.0 2.0 0.00 0.00 0.00 89 1017.6
20260902101357 74 316 0.0 2.0 0.00 0.00 0.00 89 1017.6
20260902101257 74 319 0.0 2.0 0.00 0.00 0.00 89 1017.6
20260902101056 74 330 0.0 2.0 0.00 0.00 0.00 89 1017.6
20260902100959 74 335 0.0 2.0 0.00 0.00 0.00 89 1017.6
20260902100858 74 324 0.0 2.0 0.00 0.00 0.00 89 1017.5
20260902100757 74 330 0.0 2.0 0.00 0.00 0.00 89 1017.6
20260902100657 74 330 0.0 2.0 0.00 0.00 0.00 89 1017.5
20260902100458 74 330 0.0 3.0 0.00 0.00 0.00 89 1017.5
20260902100356 74 335 0.0 3.0 0.00 0.00 0.00 89 1017.6
20260902100257 74 324 0.0 3.0 0.00 0.00 0.00 89 1017.6
20260902100157 74 328 0.0 3.0 0.00 0.00 0.00 89 1017.5
20260902100057 74 333 0.0 3.0 0.00 0.00 0.00 89 1017.5
20260902100001 74 342 0.0 3.0 0.00 0.00 0.00 89 1017.5
20260902095857 74 330 0.0 3.0 0.00 0.00 0.00 89 1017.5
20260902095459 74 319 1.0 2.0 0.00 0.00 0.00 89 1017.4
20260902095357 74 338 1.0 2.0 0.00 0.00 0.00 89 1017.3
20260902095257 74 1 0.0 2.0 0.00 0.00 0.00 89 1017.3
20260902095157 74 360 0.0 2.0 0.00 0.00 0.00 89 1017.4
20260902095056 74 335 0.0 2.0 0.00 0.00 0.00 89 1017.3
20260902095000 74 337 0.0 2.0 0.00 0.00 0.00 89 1017.2
20260902094857 74 337 0.0 3.0 0.00 0.00 0.00 89 1017.3
20260902094757 74 314 0.0 3.0 0.00 0.00 0.00 89 1017.2
20260902094656 74 314 0.0 3.0 0.00 0.00 0.00 89 1017.2
20260902094459 74 321 0.0 3.0 0.00 0.00 0.00 89 1017.1
20260902094357 74 309 1.0 3.0 0.00 0.00 0.00 89 1017.1
20260902094257 74 328 1.0 3.0 0.00 0.00 0.00 89 1017.1
20260902094157 74 311 1.0 3.0 0.00 0.00 0.00 89 1017.1
20260902094057 74 311 2.0 3.0 0.00 0.00 0.00 89 1017.1
20260902093959 74 295 2.0 3.0 0.00 0.00 0.00 89 1017.1
20260902093856 74 293 2.0 3.0 0.00 0.00 0.00 89 1017.2
20260902093756 74 326 2.0 3.0 0.00 0.00 0.00 89 1017.2
20260902093657 74 286 2.0 3.0 0.00 0.00 0.00 89 1017.2
20260902093557 74 319 2.0 2.0 0.00 0.00 0.00 89 1017.1
20260902093458 74 333 1.0 2.0 0.00 0.00 0.00 89 1017.1
20260902093357 74 314 2.0 2.0 0.00 0.00 0.00 89 1017.1
20260902093256 74 338 2.0 2.0 0.00 0.00 0.00 89 1017.2
20260902093157 74 338 2.0 2.0 0.00 0.00 0.00 89 1017.1
20260902093057 74 328 2.0 2.0 0.00 0.00 0.00 89 1017.0
20260902092958 74 345 0.0 2.0 0.00 0.00 0.00 89 1017.1
20260902092857 74 309 1.0 2.0 0.00 0.00 0.00 89 1017.1
20260902092756 74 338 0.0 2.0 0.00 0.00 0.00 89 1017.0
20260902092656 74 340 0.0 2.0 0.00 0.00 0.00 89 1017.1
20260902092557 74 360 1.0 2.0 0.00 0.00 0.00 89 1017.0
20260902092458 74 20 0.0 2.0 0.00 0.00 0.00 89 1017.1
20260902092356 74 323 0.0 2.0 0.00 0.00 0.00 89 1017.1
20260902092157 74 349 0.0 2.0 0.00 0.00 0.00 89 1017.2
20260902092056 74 335 0.0 2.0 0.00 0.00 0.00 89 1017.0
20260902091958 74 337 0.0 2.0 0.00 0.00 0.00 89 1017.1
20260902091857 74 324 1.0 2.0 0.00 0.00 0.00 88 1017.1
20260902091757 74 333 2.0 2.0 0.00 0.00 0.00 88 1017.1
20260902091656 74 328 0.0 2.0 0.00 0.00 0.00 88 1017.1
20260902091556 74 347 2.0 2.0 0.00 0.00 0.00 88 1017.1
20260902091458 74 335 1.0 2.0 0.00 0.00 0.00 88 1017.0
20260902091357 75 316 0.0 2.0 0.00 0.00 0.00 88 1017.0
20260902091257 75 317 0.0 2.0 0.00 0.00 0.00 88 1017.0
20260902091156 75 319 0.0 2.0 0.00 0.00 0.00 88 1017.0
20260902091057 75 302 0.0 2.0 0.00 0.00 0.00 88 1016.9
20260902091000 75 314 0.0 2.0 0.00 0.00 0.00 88 1016.9
20260902090857 75 319 0.0 2.0 0.00 0.00 0.00 88 1017.0
20260902090657 75 310 1.0 2.0 0.00 0.00 0.00 88 1016.9
20260902090556 75 312 0.0 2.0 0.00 0.00 0.00 88 1016.9
20260902090458 75 316 0.0 2.0 0.00 0.00 0.00 88 1016.9
20260902090357 75 323 0.0 2.0 0.00 0.00 0.00 88 1016.8
20260902090256 75 328 0.0 2.0 0.00 0.00 0.00 88 1016.9
20260902090156 75 340 2.0 2.0 0.00 0.00 0.00 88 1016.8
20260902090057 75 337 0.0 2.0 0.00 0.00 0.00 88 1016.9
20260902090000 75 340 2.0 2.0 0.00 0.00 0.00 88 1016.9
20260902085858 75 342 0.0 2.0 0.00 0.00 0.00 88 1016.9
20260902085758 75 330 1.0 2.0 0.00 0.00 0.00 88 1016.9
20260902085656 75 331 0.0 2.0 0.00 0.00 0.00 88 1016.8
20260902085458 75 319 0.0 2.0 0.00 0.00 0.00 88 1016.9
20260902085356 75 328 0.0 2.0 0.00 0.00 0.00 88 1016.8
20260902085257 75 319 0.0 2.0 0.00 0.00 0.00 88 1016.8
20260902085157 75 323 0.0 2.0 0.00 0.00 0.00 88 1016.9
20260902085057 75 333 0.0 2.0 0.00 0.00 0.00 88 1016.8
20260902084959 75 307 0.0 2.0 0.00 0.00 0.00 88 1016.8
20260902084858 75 328 0.0 2.0 0.00 0.00 0.00 88 1016.8
20260902084757 75 321 0.0 2.0 0.00 0.00 0.00 88 1016.7
20260902084557 75 324 0.0 2.0 0.00 0.00 0.00 88 1016.7
20260902084458 75 330 1.0 2.0 0.00 0.00 0.00 88 1016.8
20260902084357 75 359 0.0 2.0 0.00 0.00 0.00 88 1016.8
20260902084157 75 346 0.0 2.0 0.00 0.00 0.00 87 1016.8
20260902084057 75 330 0.0 2.0 0.00 0.00 0.00 88 1016.7
20260902083959 75 330 0.0 2.0 0.00 0.00 0.00 88 1016.8
20260902083855 75 344 0.0 2.0 0.00 0.00 0.00 88 1016.7
20260902083756 75 331 0.0 2.0 0.00 0.00 0.00 88 1016.7
20260902083557 75 330 2.0 2.0 0.00 0.00 0.00 88 1016.7
20260902083458 75 337 0.0 2.0 0.00 0.00 0.00 87 1016.8
20260902083256 75 344 1.0 3.0 0.00 0.00 0.00 87 1016.7
20260902083157 75 330 1.0 3.0 0.00 0.00 0.00 87 1016.7
20260902083056 75 330 1.0 3.0 0.00 0.00 0.00 87 1016.7
20260902082959 75 323 0.0 3.0 0.00 0.00 0.00 87 1016.7
20260902082857 75 316 0.0 3.0 0.00 0.00 0.00 87 1016.7
20260902082757 75 331 0.0 3.0 0.00 0.00 0.00 87 1016.7
20260902082656 75 324 0.0 3.0 0.00 0.00 0.00 87 1016.7
20260902082457 75 314 0.0 3.0 0.00 0.00 0.00 87 1016.6
20260902082356 75 319 3.0 3.0 0.00 0.00 0.00 87 1016.7
20260902082256 75 319 2.0 2.0 0.00 0.00 0.00 87 1016.7
20260902082157 75 296 2.0 2.0 0.00 0.00 0.00 87 1016.7
20260902082057 75 312 2.0 2.0 0.00 0.00 0.00 87 1016.7
20260902082000 75 328 2.0 2.0 0.00 0.00 0.00 87 1016.7
20260902081857 75 317 0.0 2.0 0.00 0.00 0.00 87 1016.7
20260902081757 75 317 0.0 2.0 0.00 0.00 0.00 87 1016.7
20260902081656 75 330 0.0 2.0 0.00 0.00 0.00 87 1016.7
20260902081557 75 333 0.0 2.0 0.00 0.00 0.00 87 1016.7
20260902081459 75 323 0.0 2.0 0.00 0.00 0.00 87 1016.7
20260902081357 75 338 1.0 2.0 0.00 0.00 0.00 87 1016.6
20260902081256 75 342 0.0 2.0 0.00 0.00 0.00 87 1016.7
20260902081158 75 337 1.0 2.0 0.00 0.00 0.00 87 1016.7
20260902081057 75 345 2.0 2.0 0.00 0.00 0.00 87 1016.7
20260902080959 75 349 0.0 2.0 0.00 0.00 0.00 87 1016.8
20260902080856 75 352 0.0 2.0 0.00 0.00 0.00 87 1016.7
20260902080757 75 335 2.0 2.0 0.00 0.00 0.00 87 1016.8
20260902080657 75 338 2.0 2.0 0.00 0.00 0.00 87 1016.8
20260902080557 75 342 1.0 2.0 0.00 0.00 0.00 87 1016.8
20260902080458 75 330 0.0 2.0 0.00 0.00 0.00 87 1016.8
20260902080357 75 8 1.0 2.0 0.00 0.00 0.00 86 1016.8
20260902080257 75 354 1.0 2.0 0.00 0.00 0.00 86 1016.7
20260902080056 75 335 0.0 1.0 0.00 0.00 0.00 86 1016.7
20260902080002 75 338 0.0 1.0 0.00 0.00 0.00 86 1016.7
20260902075857 75 331 1.0 1.0 0.00 0.00 0.00 86 1016.7
20260902075757 75 330 0.0 1.0 0.00 0.00 0.00 86 1016.8
20260902075656 75 326 0.0 0.0 0.00 0.00 0.00 86 1016.8
20260902075458 75 345 0.0 0.0 0.00 0.00 0.00 86 1016.7
20260902075256 75 345 0.0 0.0 0.00 0.00 0.00 86 1016.7
20260902075156 76 345 0.0 2.0 0.00 0.00 0.00 86 1016.6
20260902074959 76 345 0.0 2.0 0.00 0.00 0.00 86 1016.7
20260902074857 76 338 0.0 2.0 0.00 0.00 0.00 86 1016.6
20260902074757 76 338 0.0 2.0 0.00 0.00 0.00 86 1016.7
20260902074657 76 1 0.0 2.0 0.00 0.00 0.00 86 1016.7
20260902074556 76 330 0.0 2.0 0.00 0.00 0.00 86 1016.7
20260902074256 76 340 0.0 2.0 0.00 0.00 0.00 86 1016.8
20260902074156 76 333 0.0 2.0 0.00 0.00 0.00 86 1016.8
20260902074057 76 328 2.0 2.0 0.00 0.00 0.00 86 1016.8
20260902074000 76 337 2.0 2.0 0.00 0.00 0.00 86 1016.8
20260902073757 76 304 0.0 2.0 0.00 0.00 0.00 85 1016.7
20260902073657 76 304 0.0 2.0 0.00 0.00 0.00 85 1016.7
20260902073557 76 304 0.0 2.0 0.00 0.00 0.00 85 1016.8
20260902073357 76 323 1.0 2.0 0.00 0.00 0.00 85 1016.8
20260902073257 76 319 0.0 3.0 0.00 0.00 0.00 85 1016.7
20260902073156 76 323 0.0 3.0 0.00 0.00 0.00 85 1016.7
20260902073057 76 330 2.0 3.0 0.00 0.00 0.00 85 1016.7
20260902072959 76 338 0.0 3.0 0.00 0.00 0.00 85 1016.8
20260902072857 76 331 1.0 3.0 0.00 0.00 0.00 85 1016.7
20260902072758 76 316 1.0 3.0 0.00 0.00 0.00 85 1016.6
20260902072557 76 326 1.0 3.0 0.00 0.00 0.00 85 1016.7
20260902072458 76 319 1.0 3.0 0.00 0.00 0.00 85 1016.7
20260902072357 76 319 2.0 3.0 0.00 0.00 0.00 85 1016.7
20260902072256 76 321 2.0 3.0 0.00 0.00 0.00 85 1016.7
20260902072157 76 307 3.0 3.0 0.00 0.00 0.00 85 1016.8
20260902071856 76 328 2.0 3.0 0.00 0.00 0.00 85 1016.8
20260902071757 76 321 1.0 2.0 0.00 0.00 0.00 85 1016.8
20260902071656 76 342 1.0 2.0 0.00 0.00 0.00 85 1016.8
20260902071556 76 330 0.0 2.0 0.00 0.00 0.00 85 1016.8
20260902071458 76 333 1.0 2.0 0.00 0.00 0.00 85 1016.8
20260902071357 76 323 0.0 2.0 0.00 0.00 0.00 85 1016.8
20260902071257 76 337 1.0 2.0 0.00 0.00 0.00 84 1016.7
20260902071156 76 338 2.0 2.0 0.00 0.00 0.00 84 1016.8
20260902071056 76 358 2.0 2.0 0.00 0.00 0.00 84 1016.8
20260902070959 76 316 0.0 2.0 0.00 0.00 0.00 84 1016.8
20260902070857 76 326 0.0 3.0 0.00 0.00 0.00 84 1016.8
20260902070757 76 326 0.0 3.0 0.00 0.00 0.00 84 1016.7
20260902070258 76 314 2.0 3.0 0.00 0.00 0.00 84 1016.8
20260902070157 76 319 2.0 3.0 0.00 0.00 0.00 84 1016.8
20260902070057 77 326 2.0 3.0 0.00 0.00 0.00 84 1016.7
20260902070002 77 323 2.0 3.0 0.00 0.00 0.00 84 1016.7
20260902065858 77 323 1.0 2.0 0.00 0.00 0.00 84 1016.8
20260902065756 77 333 0.0 2.0 0.00 0.00 0.00 84 1016.7
20260902065657 77 307 0.0 2.0 0.00 0.00 0.00 84 1016.8
20260902065457 77 347 0.0 2.0 0.00 0.00 0.00 84 1016.8
20260902065256 77 328 0.0 2.0 0.00 0.00 0.00 83 1016.8
20260902065157 77 324 0.0 2.0 0.00 0.00 0.00 83 1016.8
20260902065057 77 321 2.0 2.0 0.00 0.00 0.00 83 1016.8
20260902064959 77 321 2.0 2.0 0.00 0.00 0.00 83 1016.8
20260902064857 77 323 1.0 2.0 0.00 0.00 0.00 83 1016.9
20260902064657 77 300 0.0 2.0 0.00 0.00 0.00 83 1016.8
20260902064557 77 300 0.0 2.0 0.00 0.00 0.00 83 1016.9
20260902064458 77 300 0.0 2.0 0.00 0.00 0.00 83 1016.8
20260902064355 77 300 0.0 2.0 0.00 0.00 0.00 83 1016.8
20260902064257 77 324 0.0 2.0 0.00 0.00 0.00 83 1016.8
20260902063958 77 328 1.0 3.0 0.00 0.00 0.00 83 1016.8
20260902063756 77 351 0.0 3.0 0.00 0.00 0.00 83 1016.9
20260902063657 77 317 0.0 3.0 0.00 0.00 0.00 83 1016.8
20260902063557 77 319 1.0 3.0 0.00 0.00 0.00 82 1016.8
20260902063458 77 314 2.0 3.0 0.00 0.00 0.00 82 1016.9
20260902063356 77 309 0.0 3.0 0.00 0.00 0.00 82 1016.8
20260902063256 77 317 2.0 3.0 0.00 0.00 0.00 82 1016.8
20260902063057 77 309 2.0 3.0 0.00 0.00 0.00 82 1016.8
20260902062856 77 312 2.0 3.0 0.00 0.00 0.00 82 1016.9
20260902062757 77 285 2.0 2.0 0.00 0.00 0.00 82 1016.9
20260902062657 77 309 2.0 2.0 0.00 0.00 0.00 82 1016.9
20260902062557 77 305 2.0 2.0 0.00 0.00 0.00 82 1016.9
20260902062458 77 345 2.0 2.0 0.00 0.00 0.00 82 1017.0
20260902062356 77 316 0.0 2.0 0.00 0.00 0.00 82 1016.9
20260902062257 77 323 2.0 2.0 0.00 0.00 0.00 82 1016.9
20260902062157 77 349 1.0 2.0 0.00 0.00 0.00 82 1016.9
20260902062057 77 333 1.0 2.0 0.00 0.00 0.00 82 1016.9
20260902061959 77 326 0.0 2.0 0.00 0.00 0.00 81 1017.0
20260902061857 77 314 0.0 3.0 0.00 0.00 0.00 81 1016.9
20260902061757 78 310 0.0 3.0 0.00 0.00 0.00 81 1016.9
20260902061458 78 290 1.0 3.0 0.00 0.00 0.00 81 1016.9
20260902061357 78 311 2.0 3.0 0.00 0.00 0.00 81 1016.9
20260902061257 78 326 2.0 3.0 0.00 0.00 0.00 81 1016.9
20260902061157 78 312 2.0 3.0 0.00 0.00 0.00 81 1016.9
20260902061056 78 296 2.0 3.0 0.00 0.00 0.00 81 1017.0
20260902061000 78 279 2.0 3.0 0.00 0.00 0.00 81 1016.9
20260902060856 78 269 3.0 3.0 0.00 0.00 0.00 81 1017.0
20260902060757 78 319 0.0 3.0 0.00 0.00 0.00 80 1016.9
20260902060657 78 323 2.0 3.0 0.00 0.00 0.00 80 1016.9
20260902060556 78 335 0.0 2.0 0.00 0.00 0.00 80 1016.9
20260902060457 78 312 1.0 3.0 0.00 0.00 0.00 80 1016.9
20260902060356 78 333 0.0 3.0 0.00 0.00 0.00 80 1017.0
20260902060258 78 328 0.0 3.0 0.00 0.00 0.00 80 1017.0
20260902060002 78 335 0.0 3.0 0.00 0.00 0.00 80 1017.0
20260902055858 78 324 0.0 3.0 0.00 0.00 0.00 80 1017.1
20260902055800 78 324 0.0 3.0 0.00 0.00 0.00 80 1017.1
20260902055707 78 333 0.0 3.0 0.00 0.00 0.00 80 1017.0
20260902055500 78 323 0.0 2.0 0.00 0.00 0.00 80 1017.0
20260902055359 78 316 0.0 2.0 0.00 0.00 0.00 80 1017.0
20260902055258 78 319 2.0 2.0 0.00 0.00 0.00 80 1017.0
20260902055159 78 307 0.0 2.0 0.00 0.00 0.00 80 1017.0
20260902055059 78 314 0.0 2.0 0.00 0.00 0.00 79 1017.0
20260902055003 78 307 0.0 2.0 0.00 0.00 0.00 79 1017.0
20260902054858 78 330 2.0 2.0 0.00 0.00 0.00 79 1016.9
20260902054758 78 289 0.0 1.0 0.00 0.00 0.00 79 1017.0
20260902054659 78 312 0.0 1.0 0.00 0.00 0.00 79 1017.0
20260902054559 79 312 0.0 1.0 0.00 0.00 0.00 79 1017.0
20260902054459 79 312 0.0 2.0 0.00 0.00 0.00 79 1017.0
20260902054358 78 312 0.0 2.0 0.00 0.00 0.00 79 1016.9
20260902054259 79 312 0.0 2.0 0.00 0.00 0.00 79 1016.9
20260902054159 79 312 1.0 2.0 0.00 0.00 0.00 79 1016.9
20260902054058 79 309 0.0 2.0 0.00 0.00 0.00 79 1017.0
20260902054003 79 321 0.0 2.0 0.00 0.00 0.00 79 1016.9
20260902053859 79 321 0.0 2.0 0.00 0.00 0.00 79 1016.9
20260902053759 79 321 0.0 2.0 0.00 0.00 0.00 79 1016.9
20260902053658 79 321 0.0 2.0 0.00 0.00 0.00 79 1016.9
20260902053559 79 317 0.0 3.0 0.00 0.00 0.00 79 1016.9
20260902053500 79 317 0.0 3.0 0.00 0.00 0.00 79 1017.0
20260902053258 79 316 0.0 3.0 0.00 0.00 0.00 79 1017.0
20260902053158 79 319 0.0 3.0 0.00 0.00 0.00 79 1016.9
20260902053059 79 312 0.0 3.0 0.00 0.00 0.00 78 1016.9
20260902053004 79 323 0.0 3.0 0.00 0.00 0.00 78 1016.9
20260902052858 79 330 2.0 3.0 0.00 0.00 0.00 78 1016.9
20260902052759 79 354 0.0 3.0 0.00 0.00 0.00 78 1016.9
20260902052700 79 328 2.0 3.0 0.00 0.00 0.00 78 1016.9
20260902052558 79 331 0.0 3.0 0.00 0.00 0.00 78 1016.9
20260902052459 79 323 0.0 2.0 0.00 0.00 0.00 78 1016.9
20260902052359 79 328 1.0 2.0 0.00 0.00 0.00 78 1017.0
20260902052258 79 340 0.0 2.0 0.00 0.00 0.00 78 1017.0
20260902052159 79 342 2.0 2.0 0.00 0.00 0.00 78 1017.0
20260902052058 79 324 0.0 2.0 0.00 0.00 0.00 78 1017.1
20260902052002 79 283 0.0 2.0 0.00 0.00 0.00 78 1017.1
20260902051858 79 309 0.0 3.0 0.00 0.00 0.00 78 1017.0
20260902051759 79 326 0.0 3.0 0.00 0.00 0.00 78 1017.2
20260902051558 79 336 1.0 3.0 0.00 0.00 0.00 78 1017.1
20260902051459 79 321 0.0 3.0 0.00 0.00 0.00 78 1017.1
20260902051359 79 326 0.0 3.0 0.00 0.00 0.00 78 1017.1
20260902051258 79 303 1.0 3.0 0.00 0.00 0.00 78 1017.1
20260902051159 79 314 0.0 3.0 0.00 0.00 0.00 78 1017.0
20260902050859 79 317 0.0 3.0 0.00 0.00 0.00 78 1017.1
20260902050659 79 322 0.0 3.0 0.00 0.00 0.00 78 1017.1
20260902050559 79 311 0.0 3.0 0.00 0.00 0.00 78 1017.1
20260902050459 79 304 2.0 3.0 0.00 0.00 0.00 78 1017.1
20260902050359 79 321 1.0 3.0 0.00 0.00 0.00 78 1017.0
20260902050258 79 302 2.0 3.0 0.00 0.00 0.00 78 1017.1
20260902050200 79 309 2.0 3.0 0.00 0.00 0.00 78 1017.0
20260902050004 79 295 2.0 3.0 0.00 0.00 0.00 77 1017.0
20260902045859 80 316 2.0 3.0 0.00 0.00 0.00 77 1017.1
20260902045659 80 324 3.0 3.0 0.00 0.00 0.00 77 1017.2
20260902045559 80 314 3.0 3.0 0.00 0.00 0.00 77 1017.2
20260902045500 80 295 3.0 3.0 0.00 0.00 0.00 77 1017.1
20260902045358 80 324 2.0 3.0 0.00 0.00 0.00 77 1017.2
20260902045258 80 354 2.0 2.0 0.00 0.00 0.00 77 1017.1
20260902045158 80 351 2.0 3.0 0.00 0.00 0.00 77 1017.1
20260902045058 80 333 0.0 3.0 0.00 0.00 0.00 77 1017.1
20260902045004 80 316 2.0 3.0 0.00 0.00 0.00 77 1017.1
20260902044659 80 328 2.0 3.0 0.00 0.00 0.00 77 1017.2
20260902044558 80 333 2.0 3.0 0.00 0.00 0.00 77 1017.1
20260902044500 80 319 2.0 3.0 0.00 0.00 0.00 77 1017.3
20260902044358 80 323 2.0 3.0 0.00 0.00 0.00 77 1017.3
20260902044259 80 312 2.0 3.0 0.00 0.00 0.00 77 1017.2
20260902044158 80 314 1.0 3.0 0.00 0.00 0.00 77 1017.1
20260902044059 80 323 2.0 3.0 0.00 0.00 0.00 77 1017.1
20260902044003 80 330 2.0 3.0 0.00 0.00 0.00 77 1017.1
20260902043859 80 310 2.0 3.0 0.00 0.00 0.00 77 1017.1
20260902043759 80 335 2.0 3.0 0.00 0.00 0.00 77 1017.1
20260902043658 80 333 0.0 3.0 0.00 0.00 0.00 77 1017.2
20260902043500 80 322 0.0 3.0 0.00 0.00 0.00 77 1017.2
20260902043359 80 311 1.0 3.0 0.00 0.00 0.00 77 1017.2
20260902043259 80 336 1.0 3.0 0.00 0.00 0.00 77 1017.1
20260902043159 80 338 0.0 3.0 0.00 0.00 0.00 77 1017.1
20260902043059 80 309 2.0 3.0 0.00 0.00 0.00 77 1017.0
20260902043004 80 333 2.0 3.0 0.00 0.00 0.00 76 1017.1
20260902042858 80 345 2.0 3.0 0.00 0.00 0.00 76 1017.1
20260902042758 80 338 2.0 3.0 0.00 0.00 0.00 76 1017.1
20260902042658 80 319 1.0 3.0 0.00 0.00 0.00 76 1017.0
20260902042559 80 342 1.0 3.0 0.00 0.00 0.00 76 1017.0
20260902042500 80 335 2.0 3.0 0.00 0.00 0.00 76 1017.0
20260902042400 80 319 1.0 3.0 0.00 0.00 0.00 76 1017.1
20260902042258 80 328 2.0 3.0 0.00 0.00 0.00 76 1017.0
20260902042159 80 326 2.0 3.0 0.00 0.00 0.00 76 1017.1
20260902042003 80 296 2.0 3.0 0.00 0.00 0.00 76 1017.2
20260902041858 80 328 2.0 3.0 0.00 0.00 0.00 76 1017.2
20260902041659 80 307 1.0 3.0 0.00 0.00 0.00 76 1017.2
20260902041559 80 297 2.0 3.0 0.00 0.00 0.00 75 1017.2
20260902041159 80 328 2.0 3.0 0.00 0.00 0.00 75 1017.3
20260902041058 80 326 1.0 3.0 0.00 0.00 0.00 75 1017.3
20260902041001 81 328 2.0 3.0 0.00 0.00 0.00 75 1017.1
20260902040858 81 328 2.0 3.0 0.00 0.00 0.00 75 1017.3
20260902040758 81 333 2.0 3.0 0.00 0.00 0.00 75 1017.2
20260902040659 81 328 0.0 3.0 0.00 0.00 0.00 75 1017.2
20260902040559 81 323 1.0 3.0 0.00 0.00 0.00 75 1017.2
20260902040500 81 347 2.0 3.0 0.00 0.00 0.00 76 1017.2
20260902040358 81 333 1.0 3.0 0.00 0.00 0.00 76 1017.2
20260902040158 81 316 2.0 3.0 0.00 0.00 0.00 76 1017.2
20260902040058 81 315 3.0 3.0 0.00 0.00 0.00 76 1017.3
20260902040004 81 319 2.0 3.0 0.00 0.00 0.00 75 1017.3
20260902035859 81 314 2.0 3.0 0.00 0.00 0.00 75 1017.3
20260902035759 81 300 0.0 3.0 0.00 0.00 0.00 75 1017.3
20260902035659 81 316 2.0 2.0 0.00 0.00 0.00 75 1017.3
20260902035558 81 300 0.0 2.0 0.00 0.00 0.00 75 1017.3
20260902035459 81 311 0.0 2.0 0.00 0.00 0.00 75 1017.3
20260902035259 81 321 0.0 2.0 0.00 0.00 0.00 75 1017.3
20260902035158 81 316 0.0 2.0 0.00 0.00 0.00 75 1017.3
20260902035002 81 322 0.0 2.0 0.00 0.00 0.00 75 1017.2
20260902034859 81 333 0.0 2.0 0.00 0.00 0.00 75 1017.3
20260902034759 81 316 0.0 3.0 0.00 0.00 0.00 75 1017.3
20260902034658 81 319 0.0 3.0 0.00 0.00 0.00 75 1017.4
20260902034559 81 322 2.0 3.0 0.00 0.00 0.00 75 1017.4
20260902034459 81 328 1.0 3.0 0.00 0.00 0.00 75 1017.3
20260902034359 81 302 0.0 3.0 0.00 0.00 0.00 75 1017.4
20260902034258 81 352 2.0 3.0 0.00 0.00 0.00 75 1017.4
20260902034058 81 328 0.0 3.0 0.00 0.00 0.00 75 1017.5
20260902034000 81 321 2.0 3.0 0.00 0.00 0.00 75 1017.3
20260902033858 81 343 1.0 3.0 0.00 0.00 0.00 75 1017.4
20260902033758 81 321 0.0 3.0 0.00 0.00 0.00 75 1017.3
20260902033659 81 340 2.0 2.0 0.00 0.00 0.00 75 1017.3
20260902033558 81 351 2.0 2.0 0.00 0.00 0.00 75 1017.4
20260902033459 81 351 1.0 2.0 0.00 0.00 0.00 75 1017.4
20260902033359 81 342 1.0 2.0 0.00 0.00 0.00 75 1017.5
20260902033259 81 333 1.0 2.0 0.00 0.00 0.00 75 1017.5
20260902033158 81 328 0.0 2.0 0.00 0.00 0.00 75 1017.5
20260902033059 81 335 1.0 2.0 0.00 0.00 0.00 75 1017.5
20260902033001 81 321 0.0 2.0 0.00 0.00 0.00 75 1017.4
20260902032858 81 326 1.0 2.0 0.00 0.00 0.00 75 1017.5
20260902032759 81 302 0.0 2.0 0.00 0.00 0.00 75 1017.4
20260902032659 81 326 2.0 2.0 0.00 0.00 0.00 75 1017.4
20260902032559 81 310 1.0 2.0 0.00 0.00 0.00 75 1017.4
20260902032500 81 317 2.0 2.0 0.00 0.00 0.00 75 1017.4
20260902032358 81 309 2.0 2.0 0.00 0.00 0.00 75 1017.5
20260902032259 81 324 2.0 2.0 0.00 0.00 0.00 75 1017.5
20260902032002 81 326 2.0 2.0 0.00 0.00 0.00 75 1017.6
20260902031859 81 300 2.0 2.0 0.00 0.00 0.00 75 1017.4
20260902031658 81 284 0.0 2.0 0.00 0.00 0.00 75 1017.4
20260902031558 81 307 0.0 2.0 0.00 0.00 0.00 75 1017.5
20260902031359 81 311 0.0 2.0 0.00 0.00 0.00 75 1017.4
20260902031258 81 321 0.0 2.0 0.00 0.00 0.00 75 1017.4
20260902031158 81 326 0.0 2.0 0.00 0.00 0.00 75 1017.5
20260902031059 81 310 0.0 2.0 0.00 0.00 0.00 75 1017.4
20260902031001 81 315 0.0 3.0 0.00 0.00 0.00 74 1017.5
20260902030859 81 302 1.0 3.0 0.00 0.00 0.00 74 1017.5
20260902030758 81 296 0.0 3.0 0.00 0.00 0.00 74 1017.5
20260902030658 81 305 0.0 3.0 0.00 0.00 0.00 74 1017.5
20260902030558 81 323 0.0 3.0 0.00 0.00 0.00 74 1017.5
20260902030500 82 312 1.0 3.0 0.00 0.00 0.00 74 1017.6
20260902030259 82 303 2.0 3.0 0.00 0.00 0.00 75 1017.6
20260902030159 82 275 2.0 3.0 0.00 0.00 0.00 74 1017.6
20260902030059 82 296 2.0 3.0 0.00 0.00 0.00 74 1017.5
20260902030004 82 319 2.0 3.0 0.00 0.00 0.00 74 1017.5
20260902025858 82 300 2.0 3.0 0.00 0.00 0.00 74 1017.5
20260902025759 82 293 2.0 3.0 0.00 0.00 0.00 74 1017.5
20260902025659 82 287 2.0 3.0 0.00 0.00 0.00 74 1017.5
20260902025559 82 286 2.0 3.0 0.00 0.00 0.00 74 1017.4
20260902025459 82 293 2.0 3.0 0.00 0.00 0.00 74 1017.3
20260902025359 82 286 2.0 3.0 0.00 0.00 0.00 74 1017.4
20260902025259 82 312 2.0 3.0 0.00 0.00 0.00 74 1017.4
20260902025159 82 319 2.0 3.0 0.00 0.00 0.00 74 1017.4
20260902024859 82 285 1.0 2.0 0.00 0.00 0.00 73 1017.3
20260902024759 82 297 0.0 2.0 0.00 0.00 0.00 73 1017.3
20260902024658 82 304 1.0 2.0 0.00 0.00 0.00 73 1017.4
20260902024500 82 302 0.0 2.0 0.00 0.00 0.00 73 1017.4
20260902024359 82 294 0.0 2.0 0.00 0.00 0.00 73 1017.3
20260902024258 82 277 0.0 2.0 0.00 0.00 0.00 73 1017.4
20260902024158 82 291 0.0 3.0 0.00 0.00 0.00 73 1017.4
20260902024058 82 308 1.0 3.0 0.00 0.00 0.00 73 1017.4
20260902023859 83 288 2.0 3.0 0.00 0.00 0.00 73 1017.4
20260902023757 83 308 2.0 3.0 0.00 0.00 0.00 72 1017.4
20260902023658 83 313 2.0 3.0 0.00 0.00 0.00 72 1017.4
20260902023559 83 300 2.0 3.0 0.00 0.00 0.00 72 1017.4
20260902023500 83 323 1.0 3.0 0.00 0.00 0.00 72 1017.5
20260902023258 83 319 3.0 3.0 0.00 0.00 0.00 72 1017.4
20260902023159 83 319 1.0 3.0 0.00 0.00 0.00 71 1017.3
20260902023059 83 343 2.0 3.0 0.00 0.00 0.00 72 1017.3
20260902023003 83 322 2.0 3.0 0.00 0.00 0.00 72 1017.3
20260902022758 83 322 2.0 3.0 0.00 0.00 0.00 72 1017.2
20260902022659 83 330 1.0 3.0 0.00 0.00 0.00 72 1017.3
20260902022459 83 307 0.0 3.0 0.00 0.00 0.00 72 1017.1
20260902022359 83 315 0.0 3.0 0.00 0.00 0.00 71 1017.3
20260902022308 83 349 3.0 3.0 0.00 0.00 0.00 72 1017.2
20260902022101 83 323 1.0 3.0 0.00 0.00 0.00 72 1017.2
20260902022004 83 329 0.0 3.0 0.00 0.00 0.00 72 1017.1
20260902021858 83 349 2.0 3.0 0.00 0.00 0.00 72 1017.2
20260902021659 83 335 2.0 3.0 0.00 0.00 0.00 72 1017.2
20260902021559 83 326 3.0 3.0 0.00 0.00 0.00 72 1017.1
20260902021500 83 309 0.0 3.0 0.00 0.00 0.00 72 1017.1
20260902021359 83 303 2.0 3.0 0.00 0.00 0.00 72 1017.1
20260902021258 83 331 0.0 3.0 0.00 0.00 0.00 72 1017.2
20260902021158 83 342 2.0 3.0 0.00 0.00 0.00 72 1017.0
20260902021058 83 352 0.0 3.0 0.00 0.00 0.00 72 1017.0
20260902021003 83 326 1.0 3.0 0.00 0.00 0.00 72 1017.0
20260902020857 83 305 0.0 3.0 0.00 0.00 0.00 72 1017.0
20260902020659 83 319 1.0 3.0 0.00 0.00 0.00 72 1017.0
20260902020558 83 326 0.0 3.0 0.00 0.00 0.00 72 1017.1
20260902020500 83 324 2.0 3.0 0.00 0.00 0.00 72 1017.1
20260902020359 83 333 1.0 3.0 0.00 0.00 0.00 72 1017.0
20260902020258 83 345 2.0 3.0 0.00 0.00 0.00 72 1017.0
20260902020058 83 330 0.0 1.0 0.00 0.00 0.00 72 1017.0
20260902020004 83 326 0.0 1.0 0.00 0.00 0.00 72 1016.9
20260902015859 83 335 0.0 1.0 0.00 0.00 0.00 72 1016.9
20260902015759 83 336 0.0 1.0 0.00 0.00 0.00 72 1017.0
20260902015659 83 315 0.0 1.0 0.00 0.00 0.00 72 1016.9
20260902015600 83 315 0.0 1.0 0.00 0.00 0.00 71 1016.9
20260902015504 83 305 0.0 2.0 0.00 0.00 0.00 71 1016.9
20260902015400 83 319 0.0 2.0 0.00 0.00 0.00 71 1016.9
20260902015300 83 319 0.0 2.0 0.00 0.00 0.00 71 1016.9
20260902015159 83 308 0.0 2.0 0.00 0.00 0.00 71 1016.8
20260902015059 83 312 0.0 2.0 0.00 0.00 0.00 71 1016.8
20260902015004 83 295 0.0 2.0 0.00 0.00 0.00 71 1016.8
20260902014900 83 295 0.0 2.0 0.00 0.00 0.00 71 1016.8
20260902014800 83 323 0.0 2.0 0.00 0.00 0.00 71 1016.8
20260902014700 83 323 1.0 2.0 0.00 0.00 0.00 71 1016.8
20260902014559 83 316 1.0 2.0 0.00 0.00 0.00 71 1016.7
20260902014503 83 305 0.0 2.0 0.00 0.00 0.00 71 1016.7
20260902014359 83 305 0.0 2.0 0.00 0.00 0.00 71 1016.7
20260902014300 83 309 0.0 2.0 0.00 0.00 0.00 71 1016.7
20260902014059 83 301 0.0 2.0 0.00 0.00 0.00 71 1016.7
20260902014004 83 300 0.0 2.0 0.00 0.00 0.00 71 1016.7
20260902013659 84 326 0.0 2.0 0.00 0.00 0.00 70 1016.6
20260902013600 84 326 0.0 2.0 0.00 0.00 0.00 70 1016.6
20260902013501 84 326 0.0 2.0 0.00 0.00 0.00 70 1016.5
20260902013400 84 326 0.0 2.0 0.00 0.00 0.00 70 1016.5
20260902013258 84 326 0.0 2.0 0.00 0.00 0.00 70 1016.5
20260902013200 84 336 0.0 2.0 0.00 0.00 0.00 70 1016.5
20260902013059 84 336 0.0 2.0 0.00 0.00 0.00 70 1016.4
20260902013004 84 336 0.0 2.0 0.00 0.00 0.00 70 1016.6
20260902012900 84 330 0.0 2.0 0.00 0.00 0.00 70 1016.6
20260902012800 84 315 0.0 2.0 0.00 0.00 0.00 70 1016.5
20260902012700 84 323 1.0 2.0 0.00 0.00 0.00 70 1016.5
20260902012559 84 317 0.0 2.0 0.00 0.00 0.00 70 1016.4
20260902012503 84 310 1.0 2.0 0.00 0.00 0.00 70 1016.5
20260902012400 84 303 0.0 2.0 0.00 0.00 0.00 70 1016.5
20260902012259 84 316 0.0 2.0 0.00 0.00 0.00 69 1016.4
20260902012200 84 291 0.0 2.0 0.00 0.00 0.00 70 1016.5
20260902012100 84 302 0.0 2.0 0.00 0.00 0.00 69 1016.4
20260902011901 84 309 0.0 2.0 0.00 0.00 0.00 69 1016.5
20260902011800 84 307 0.0 2.0 0.00 0.00 0.00 69 1016.6
20260902011659 84 307 0.0 2.0 0.00 0.00 0.00 69 1016.4
20260902011600 84 291 0.0 2.0 0.00 0.00 0.00 69 1016.4
20260902011500 84 309 0.0 3.0 0.00 0.00 0.00 69 1016.4
20260902011400 84 302 0.0 3.0 0.00 0.00 0.00 69 1016.4
20260902011300 84 272 0.0 3.0 0.00 0.00 0.00 70 1016.4
20260902011200 84 314 0.0 3.0 0.00 0.00 0.00 69 1016.4
20260902011003 84 304 0.0 3.0 0.00 0.00 0.00 69 1016.5
20260902010900 84 315 2.0 3.0 0.00 0.00 0.00 69 1016.5
20260902010759 84 302 2.0 3.0 0.00 0.00 0.00 69 1016.4
20260902010659 84 315 2.0 3.0 0.00 0.00 0.00 69 1016.4
20260902010359 85 302 1.0 3.0 0.00 0.00 0.00 69 1016.3
20260902010259 85 299 2.0 3.0 0.00 0.00 0.00 69 1016.3
20260902010200 85 307 0.0 3.0 0.00 0.00 0.00 68 1016.4
20260902010100 85 294 2.0 3.0 0.00 0.00 0.00 68 1016.4
20260902010004 85 313 1.0 3.0 0.00 0.00 0.00 68 1016.3
20260902005859 85 322 2.0 3.0 0.00 0.00 0.00 68 1016.4
20260902005758 85 309 2.0 3.0 0.00 0.00 0.00 68 1016.2
20260902005659 85 300 1.0 3.0 0.00 0.00 0.00 68 1016.3
20260902005559 85 313 2.0 3.0 0.00 0.00 0.00 68 1016.2
20260902005500 85 299 0.0 3.0 0.00 0.00 0.00 68 1016.2
20260902005358 85 311 1.0 3.0 0.00 0.00 0.00 67 1016.2
20260902005258 85 312 1.0 3.0 0.00 0.00 0.00 68 1016.2
20260902005158 85 300 0.0 3.0 0.00 0.00 0.00 68 1016.1
20260902005058 85 303 0.0 3.0 0.00 0.00 0.00 68 1016.1
20260902005001 85 300 1.0 3.0 0.00 0.00 0.00 68 1016.1
20260902004900 85 284 0.0 3.0 0.00 0.00 0.00 68 1016.1
20260902004758 85 304 0.0 3.0 0.00 0.00 0.00 67 1016.1
20260902004658 85 307 0.0 3.0 0.00 0.00 0.00 67 1016.1
20260902004559 85 303 0.0 3.0 0.00 0.00 0.00 67 1016.1
20260902004501 85 302 0.0 3.0 0.00 0.00 0.00 67 1016.2
20260902004359 85 276 1.0 3.0 0.00 0.00 0.00 67 1016.0
20260902004158 85 303 1.0 3.0 0.00 0.00 0.00 67 1016.0
20260902004059 86 285 2.0 3.0 0.00 0.00 0.00 66 1016.0
20260902004004 86 306 0.0 3.0 0.00 0.00 0.00 66 1016.0
20260902003859 86 301 2.0 3.0 0.00 0.00 0.00 66 1016.0
20260902003758 86 287 2.0 3.0 0.00 0.00 0.00 66 1016.0
20260902003658 86 286 2.0 3.0 0.00 0.00 0.00 66 1016.0
20260902003558 86 301 1.0 2.0 0.00 0.00 0.00 65 1016.0
20260902003500 86 302 1.0 2.0 0.00 0.00 0.00 65 1016.1
20260902003359 86 307 0.0 2.0 0.00 0.00 0.00 64 1016.1
20260902003259 87 311 0.0 2.0 0.00 0.00 0.00 64 1016.1
20260902003158 87 305 0.0 2.0 0.00 0.00 0.00 64 1016.1
20260902003002 87 307 0.0 2.0 0.00 0.00 0.00 64 1016.0
20260902002858 87 307 0.0 2.0 0.00 0.00 0.00 63 1016.1
20260902002758 87 301 0.0 2.0 0.00 0.00 0.00 63 1016.0
20260902002659 87 301 0.0 2.0 0.00 0.00 0.00 63 1016.1
20260902002559 87 301 0.0 2.0 0.00 0.00 0.00 63 1016.1
20260902002459 87 301 0.0 2.0 0.00 0.00 0.00 63 1016.0
20260902002358 87 301 0.0 2.0 0.00 0.00 0.00 63 1016.0
20260902002259 87 322 0.0 2.0 0.00 0.00 0.00 63 1016.1
20260902002058 87 303 0.0 2.0 0.00 0.00 0.00 62 1016.0
20260902002004 87 331 0.0 3.0 0.00 0.00 0.00 62 1015.9
20260902001858 87 347 0.0 3.0 0.00 0.00 0.00 63 1015.9
20260902001758 87 24 0.0 3.0 0.00 0.00 0.00 62 1015.9
20260902001658 87 321 0.0 3.0 0.00 0.00 0.00 62 1015.9
20260902001558 87 20 0.0 3.0 0.00 0.00 0.00 62 1015.9
20260902001500 87 321 0.0 3.0 0.00 0.00 0.00 62 1015.9
20260902001259 88 326 0.0 3.0 0.00 0.00 0.00 62 1015.9
20260902001200 88 303 0.0 3.0 0.00 0.00 0.00 62 1015.8
20260902001059 88 319 0.0 3.0 0.00 0.00 0.00 61 1015.8
20260902001003 88 134 0.0 3.0 0.00 0.00 0.00 61 1015.9
20260902000858 88 134 0.0 3.0 0.00 0.00 0.00 61 1015.9
20260902000759 88 154 1.0 3.0 0.00 0.00 0.00 61 1015.9
20260902000558 88 49 0.0 3.0 0.00 0.00 0.00 61 1015.9
20260902000500 88 27 2.0 3.0 0.00 0.00 0.00 61 1015.9
20260902000359 88 338 0.0 2.0 0.00 0.00 0.00 61 1015.9
20260902000258 88 141 0.0 2.0 0.00 0.00 0.00 61 1016.0
20260902000159 88 141 0.0 2.0 0.00 0.00 0.00 61 1016.0
20260902000059 88 141 0.0 2.0 0.00 0.00 0.00 60 1015.9
20260902000004 88 141 0.0 2.0 0.00 0.00 0.00 60 1015.9
20260901235859 88 316 0.0 2.0 0.00 0.00 0.00 60 1016.0
20260901235757 88 316 0.0 2.0 0.00 0.00 0.00 60 1016.0
20260901235658 88 316 0.0 2.0 0.00 0.00 0.00 60 1016.0
20260901235559 88 316 0.0 2.0 0.00 0.00 0.00 60 1016.1
20260901235359 88 354 0.0 2.0 0.00 0.00 0.00 60 1016.0
20260901235258 89 1 0.0 3.0 0.00 0.00 0.00 60 1016.0
20260901235158 89 1 0.0 3.0 0.00 0.00 0.00 59 1016.0
20260901234858 89 349 0.0 3.0 0.00 0.00 0.00 59 1016.0
20260901234758 89 8 0.0 3.0 0.00 0.00 0.00 59 1016.0
20260901234659 89 359 1.0 3.0 0.00 0.00 0.00 59 1016.0
20260901234558 89 124 0.0 3.0 0.00 0.00 0.00 59 1016.0
20260901234500 89 296 0.0 3.0 0.00 0.00 0.00 58 1016.0
20260901234259 89 19 0.0 3.0 0.00 0.00 0.00 59 1015.9
20260901234159 89 316 0.0 3.0 0.00 0.00 0.00 58 1016.0
20260901234059 89 150 0.0 3.0 0.00 0.00 0.00 58 1015.9
20260901234003 89 331 2.0 3.0 0.00 0.00 0.00 58 1016.0
20260901233659 89 98 2.0 3.0 0.00 0.00 0.00 58 1016.0
20260901233558 89 335 3.0 3.0 0.00 0.00 0.00 58 1015.9
20260901233459 89 45 0.0 3.0 0.00 0.00 0.00 58 1015.9
20260901233158 89 312 2.0 3.0 0.00 0.00 0.00 58 1016.0
20260901233058 90 68 0.0 4.0 0.00 0.00 0.00 58 1016.0
20260901233004 90 305 0.0 4.0 0.00 0.00 0.00 58 1016.0
20260901232858 90 22 0.0 4.0 0.00 0.00 0.00 58 1016.0
20260901232759 90 105 0.0 4.0 0.00 0.00 0.00 58 1016.0
20260901232659 90 326 1.0 4.0 0.00 0.00 0.00 58 1016.0
20260901232559 90 15 1.0 4.0 0.00 0.00 0.00 58 1016.0
20260901232500 90 19 1.0 4.0 0.00 0.00 0.00 58 1016.1
20260901232358 90 341 0.0 4.0 0.00 0.00 0.00 58 1016.1
20260901232258 90 129 2.0 4.0 0.00 0.00 0.00 58 1016.2
20260901232158 90 354 0.0 3.0 0.00 0.00 0.00 58 1016.1
20260901232059 90 355 0.0 3.0 0.00 0.00 0.00 58 1016.1
20260901232002 90 23 3.0 4.0 0.00 0.00 0.00 58 1016.2
20260901231858 90 230 0.0 4.0 0.00 0.00 0.00 58 1016.2
20260901231759 90 69 0.0 4.0 0.00 0.00 0.00 57 1016.2
20260901231658 90 340 0.0 4.0 0.00 0.00 0.00 57 1016.2
20260901231559 90 64 1.0 4.0 0.00 0.00 0.00 57 1016.2
20260901231459 90 324 1.0 4.0 0.00 0.00 0.00 57 1016.2
20260901231359 90 310 1.0 4.0 0.00 0.00 0.00 57 1016.1
20260901231259 90 39 0.0 4.0 0.00 0.00 0.00 58 1016.1
20260901231158 90 355 2.0 4.0 0.00 0.00 0.00 57 1016.0
20260901231059 90 39 1.0 4.0 0.00 0.00 0.00 57 1016.0
20260901231002 90 349 0.0 4.0 0.00 0.00 0.00 57 1016.0
20260901230858 90 359 3.0 4.0 0.00 0.00 0.00 57 1016.0
20260901230758 90 113 2.0 4.0 0.00 0.00 0.00 57 1016.1
20260901230658 90 121 1.0 4.0 0.00 0.00 0.00 57 1016.1
20260901230600 90 74 0.0 4.0 0.00 0.00 0.00 58 1016.1
20260901230459 90 27 0.0 4.0 0.00 0.00 0.00 57 1016.1
20260901230358 90 33 3.0 4.0 0.00 0.00 0.00 57 1016.1
20260901230258 90 96 2.0 4.0 0.00 0.00 0.00 57 1016.1
20260901230158 90 41 1.0 4.0 0.00 0.00 0.00 57 1016.2
20260901230059 90 79 3.0 4.0 0.00 0.00 0.00 57 1016.1
20260901230002 90 326 0.0 4.0 0.00 0.00 0.00 57 1016.1
20260901225859 90 285 0.0 4.0 0.00 0.00 0.00 57 1016.2
20260901225758 90 128 0.0 4.0 0.00 0.00 0.00 57 1016.2
20260901225659 90 322 0.0 4.0 0.00 0.00 0.00 57 1016.1
20260901225459 90 329 0.0 4.0 0.00 0.00 0.00 57 1016.2
20260901225258 90 4 0.0 4.0 0.00 0.00 0.00 57 1016.2
20260901225158 90 41 0.0 4.0 0.00 0.00 0.00 57 1016.2
20260901225057 90 86 3.0 4.0 0.00 0.00 0.00 56 1016.2
20260901224858 91 22 0.0 4.0 0.00 0.00 0.00 56 1016.1
20260901224759 91 349 0.0 4.0 0.00 0.00 0.00 56 1016.2
20260901224659 91 307 0.0 5.0 0.00 0.00 0.00 56 1016.1
20260901224558 91 26 3.0 5.0 0.00 0.00 0.00 56 1016.2
20260901224358 91 352 0.0 5.0 0.00 0.00 0.00 56 1016.1
20260901224258 91 13 2.0 5.0 0.00 0.00 0.00 56 1016.2
20260901223859 91 11 2.0 5.0 0.00 0.00 0.00 55 1016.1
20260901223758 92 360 4.0 5.0 0.00 0.00 0.00 55 1016.1
20260901223659 92 334 0.0 5.0 0.00 0.00 0.00 55 1016.0
20260901223559 92 360 2.0 5.0 0.00 0.00 0.00 55 1016.0
20260901223500 92 293 1.0 5.0 0.00 0.00 0.00 55 1016.1
20260901223358 92 112 0.0 5.0 0.00 0.00 0.00 55 1016.0
20260901223258 92 331 2.0 5.0 0.00 0.00 0.00 55 1016.0
20260901223058 92 325 1.0 5.0 0.00 0.00 0.00 55 1016.0
20260901223004 92 6 4.0 5.0 0.00 0.00 0.00 54 1016.0
20260901222900 92 25 3.0 5.0 0.00 0.00 0.00 54 1016.0
20260901222659 92 57 2.0 5.0 0.00 0.00 0.00 54 1015.9
20260901222559 92 43 2.0 6.0 0.00 0.00 0.00 54 1016.0
20260901222357 92 117 2.0 6.0 0.00 0.00 0.00 54 1016.0
20260901222157 92 325 3.0 6.0 0.00 0.00 0.00 55 1016.0
20260901221759 92 115 5.0 6.0 0.00 0.00 0.00 54 1016.0
20260901221659 92 53 3.0 6.0 0.00 0.00 0.00 54 1016.0
20260901221500 92 26 3.0 5.0 0.00 0.00 0.00 54 1015.9
20260901221400 92 360 2.0 5.0 0.00 0.00 0.00 54 1016.0
20260901221300 92 125 2.0 5.0 0.00 0.00 0.00 53 1016.0
20260901221159 92 75 1.0 5.0 0.00 0.00 0.00 53 1016.0
20260901221059 92 18 3.0 5.0 0.00 0.00 0.00 54 1015.9
20260901221002 93 78 2.0 5.0 0.00 0.00 0.00 54 1015.9
20260901220859 93 311 0.0 5.0 0.00 0.00 0.00 54 1016.0
20260901220758 93 13 3.0 5.0 0.00 0.00 0.00 53 1016.0
20260901220659 93 343 3.0 5.0 0.00 0.00 0.00 53 1015.9
20260901220500 93 332 3.0 7.0 0.00 0.00 0.00 53 1015.9
20260901220258 93 275 2.0 7.0 0.00 0.00 0.00 53 1015.9
20260901220059 93 39 0.0 7.0 0.00 0.00 0.00 52 1015.8
20260901220000 93 352 2.0 7.0 0.00 0.00 0.00 52 1015.8
20260901215858 93 313 0.0 7.0 0.00 0.00 0.00 52 1015.8
20260901215758 93 11 2.0 7.0 0.00 0.00 0.00 52 1015.8
20260901215657 93 308 0.0 7.0 0.00 0.00 0.00 52 1015.8
20260901215558 93 107 3.0 7.0 0.00 0.00 0.00 52 1015.8
20260901215459 93 60 3.0 7.0 0.00 0.00 0.00 52 1015.7
20260901215357 93 348 1.0 7.0 0.00 0.00 0.00 53 1015.7
20260901215257 93 27 3.0 7.0 0.00 0.00 0.00 52 1015.7
20260901215057 93 40 2.0 7.0 0.00 0.00 0.00 52 1015.8
20260901215000 93 83 2.0 7.0 0.00 0.00 0.00 52 1015.8
20260901214858 93 88 2.0 8.0 0.00 0.00 0.00 52 1015.8
20260901214758 93 338 0.0 8.0 0.00 0.00 0.00 52 1015.9
20260901214658 93 25 5.0 8.0 0.00 0.00 0.00 52 1015.9
20260901214557 93 4 1.0 8.0 0.00 0.00 0.00 52 1015.9
20260901214458 93 23 0.0 8.0 0.00 0.00 0.00 51 1015.8
20260901214258 93 63 1.0 8.0 0.00 0.00 0.00 52 1015.9
20260901214157 93 326 4.0 8.0 0.00 0.00 0.00 51 1015.9
20260901214056 93 15 2.0 8.0 0.00 0.00 0.00 51 1015.9
20260901214000 93 125 3.0 8.0 0.00 0.00 0.00 52 1015.9
20260901213857 93 6 2.0 6.0 0.00 0.00 0.00 51 1015.9
20260901213758 93 345 3.0 6.0 0.00 0.00 0.00 52 1015.9
20260901213658 93 354 3.0 6.0 0.00 0.00 0.00 52 1015.9
20260901213557 93 359 4.0 6.0 0.00 0.00 0.00 52 1015.8
20260901213459 93 33 3.0 6.0 0.00 0.00 0.00 53 1015.8
20260901213357 93 4 1.0 6.0 0.00 0.00 0.00 53 1015.8
20260901213257 93 41 4.0 6.0 0.00 0.00 0.00 53 1015.7
20260901213058 92 27 0.0 6.0 0.00 0.00 0.00 53 1015.7
20260901213000 92 349 2.0 7.0 0.00 0.00 0.00 53 1015.8
20260901212857 92 352 2.0 7.0 0.00 0.00 0.00 53 1015.8
20260901212758 92 342 3.0 7.0 0.00 0.00 0.00 53 1015.7
20260901212657 92 8 1.0 7.0 0.00 0.00 0.00 53 1015.7
20260901212458 93 18 0.0 7.0 0.00 0.00 0.00 53 1015.8
20260901212258 93 329 2.0 7.0 0.00 0.00 0.00 52 1015.8
20260901212157 93 316 2.0 7.0 0.00 0.00 0.00 52 1015.9
20260901212057 93 12 6.0 7.0 0.00 0.00 0.00 52 1015.8
20260901211858 93 20 4.0 8.0 0.00 0.00 0.00 51 1015.8
20260901211800 94 108 1.0 9.0 0.00 0.00 0.00 51 1015.8
20260901211557 94 57 4.0 9.0 0.00 0.00 0.00 51 1015.9
20260901211357 94 6 2.0 9.0 0.00 0.00 0.00 51 1015.8
20260901211257 94 1 5.0 9.0 0.00 0.00 0.00 50 1015.9
20260901211157 95 353 5.0 9.0 0.00 0.00 0.00 50 1015.8
20260901211058 95 4 5.0 9.0 0.00 0.00 0.00 49 1015.9
20260901211001 96 10 7.0 9.0 0.00 0.00 0.00 48 1015.8
20260901210858 96 343 2.0 8.0 0.00 0.00 0.00 48 1015.8
20260901210757 96 340 3.0 8.0 0.00 0.00 0.00 48 1015.8
20260901210657 96 11 5.0 8.0 0.00 0.00 0.00 49 1015.9
20260901210558 96 332 5.0 8.0 0.00 0.00 0.00 48 1015.8
20260901210458 96 338 4.0 8.0 0.00 0.00 0.00 49 1015.9
20260901210357 96 360 4.0 8.0 0.00 0.00 0.00 50 1015.9
20260901210158 96 32 3.0 8.0 0.00 0.00 0.00 49 1015.9
20260901210058 96 360 8.0 8.0 0.00 0.00 0.00 50 1015.8
20260901210002 96 41 2.0 7.0 0.00 0.00 0.00 49 1015.8
20260901205858 96 330 2.0 8.0 0.00 0.00 0.00 49 1015.8
20260901205758 96 1 4.0 8.0 0.00 0.00 0.00 49 1015.8
20260901205659 96 348 2.0 8.0 0.00 0.00 0.00 49 1015.8
20260901205558 96 17 4.0 8.0 0.00 0.00 0.00 49 1015.8
20260901205459 96 4 6.0 8.0 0.00 0.00 0.00 48 1015.8
20260901205259 96 353 5.0 8.0 0.00 0.00 0.00 48 1015.8
20260901205000 96 6 6.0 8.0 0.00 0.00 0.00 48 1015.8
20260901204858 96 3 6.0 8.0 0.00 0.00 0.00 49 1015.8
20260901204758 96 8 3.0 8.0 0.00 0.00 0.00 48 1015.8
20260901204659 96 332 4.0 8.0 0.00 0.00 0.00 49 1015.8
20260901204558 96 356 7.0 8.0 0.00 0.00 0.00 49 1015.8
20260901204503 96 358 4.0 8.0 0.00 0.00 0.00 49 1015.8
20260901204258 96 23 3.0 8.0 0.00 0.00 0.00 49 1015.8
20260901204003 95 8 6.0 9.0 0.00 0.00 0.00 50 1015.8
20260901203759 94 357 5.0 9.0 0.00 0.00 0.00 51 1015.8
20260901203658 94 342 4.0 9.0 0.00 0.00 0.00 50 1015.8
20260901203459 95 13 3.0 9.0 0.00 0.00 0.00 49 1015.8
20260901203358 95 339 4.0 9.0 0.00 0.00 0.00 50 1015.9
20260901203259 95 355 5.0 9.0 0.00 0.00 0.00 49 1015.9
20260901203158 95 17 4.0 9.0 0.00 0.00 0.00 49 1015.8
20260901203001 95 6 6.0 7.0 0.00 0.00 0.00 49 1015.9
20260901202859 95 352 3.0 7.0 0.00 0.00 0.00 49 1015.9
20260901202758 96 45 2.0 7.0 0.00 0.00 0.00 49 1016.0
20260901202559 96 33 5.0 7.0 0.00 0.00 0.00 48 1015.9
20260901202459 96 153 6.0 8.0 0.00 0.00 0.00 49 1015.9
20260901202359 96 301 3.0 8.0 0.00 0.00 0.00 49 1016.0
20260901202300 96 6 3.0 8.0 0.00 0.00 0.00 48 1016.0
20260901202158 96 5 3.0 8.0 0.00 0.00 0.00 48 1015.9
20260901202004 95 351 4.0 8.0 0.00 0.00 0.00 49 1015.9
20260901201858 94 15 4.0 8.0 0.00 0.00 0.00 49 1016.0
20260901201758 94 1 6.0 8.0 0.00 0.00 0.00 49 1016.0
20260901201657 94 344 5.0 8.0 0.00 0.00 0.00 49 1016.0
20260901201459 94 1 5.0 8.0 0.00 0.00 0.00 50 1016.0
20260901201259 94 15 6.0 8.0 0.00 0.00 0.00 50 1016.1
20260901201158 94 341 5.0 8.0 0.00 0.00 0.00 50 1016.1
20260901201059 95 5 5.0 9.0 0.00 0.00 0.00 50 1016.1
20260901201003 95 360 7.0 9.0 0.00 0.00 0.00 50 1016.0
20260901200758 95 11 3.0 9.0 0.00 0.00 0.00 49 1016.1
20260901200700 96 337 3.0 9.0 0.00 0.00 0.00 49 1016.1
20260901200600 96 351 3.0 9.0 0.00 0.00 0.00 49 1016.1
20260901200459 96 13 3.0 9.0 0.00 0.00 0.00 48 1016.1
20260901200358 97 15 6.0 9.0 0.00 0.00 0.00 48 1016.1
20260901200159 97 4 8.0 8.0 0.00 0.00 0.00 48 1016.2
20260901200058 96 359 7.0 8.0 0.00 0.00 0.00 48 1016.1
20260901200003 96 343 4.0 8.0 0.00 0.00 0.00 49 1016.1
20260901195859 96 334 2.0 8.0 0.00 0.00 0.00 49 1016.1
20260901195758 96 339 4.0 8.0 0.00 0.00 0.00 49 1016.2
20260901195657 96 343 6.0 8.0 0.00 0.00 0.00 49 1016.2
20260901195559 96 344 5.0 8.0 0.00 0.00 0.00 49 1016.2
20260901195459 96 49 3.0 8.0 0.00 0.00 0.00 50 1016.0
20260901195358 95 28 2.0 8.0 0.00 0.00 0.00 49 1016.1
20260901195158 96 355 2.0 8.0 0.00 0.00 0.00 49 1016.1
20260901195058 96 288 2.0 8.0 0.00 0.00 0.00 49 1016.2
20260901194858 96 342 4.0 8.0 0.00 0.00 0.00 49 1016.2
20260901194800 96 350 5.0 8.0 0.00 0.00 0.00 49 1016.2
20260901194600 96 18 5.0 7.0 0.00 0.00 0.00 48 1016.3
20260901194500 96 336 5.0 7.0 0.00 0.00 0.00 48 1016.2
20260901194258 97 48 3.0 7.0 0.00 0.00 0.00 47 1016.4
20260901194158 97 18 4.0 7.0 0.00 0.00 0.00 47 1016.3
20260901194058 96 10 6.0 7.0 0.00 0.00 0.00 48 1016.3
20260901194004 96 346 5.0 7.0 0.00 0.00 0.00 48 1016.4
20260901193858 96 345 4.0 7.0 0.00 0.00 0.00 48 1016.4
20260901193758 96 346 6.0 7.0 0.00 0.00 0.00 48 1016.4
20260901193500 97 75 2.0 7.0 0.00 0.00 0.00 47 1016.5
20260901193258 96 10 6.0 9.0 0.00 0.00 0.00 48 1016.5
20260901193158 96 4 3.0 9.0 0.00 0.00 0.00 48 1016.4
20260901193059 96 113 6.0 9.0 0.00 0.00 0.00 48 1016.6
20260901193004 96 20 4.0 9.0 0.00 0.00 0.00 49 1016.5
20260901192858 95 359 5.0 9.0 0.00 0.00 0.00 48 1016.5
20260901192758 95 342 3.0 9.0 0.00 0.00 0.00 48 1016.5
20260901192658 96 343 5.0 9.0 0.00 0.00 0.00 46 1016.5
20260901192558 97 336 6.0 9.0 0.00 0.00 0.00 46 1016.6
20260901192358 97 17 7.0 9.0 0.00 0.00 0.00 46 1016.7
20260901192158 97 360 5.0 8.0 0.00 0.00 0.00 46 1016.6
20260901192059 97 4 5.0 8.0 0.00 0.00 0.00 47 1016.7
20260901192003 96 340 6.0 9.0 0.00 0.00 0.00 48 1016.7
20260901191858 96 1 5.0 9.0 0.00 0.00 0.00 46 1016.7
20260901191759 97 53 4.0 9.0 0.00 0.00 0.00 45 1016.7
20260901191658 97 349 5.0 9.0 0.00 0.00 0.00 45 1016.7
20260901191559 97 15 5.0 9.0 0.00 0.00 0.00 48 1016.8
20260901191500 97 342 3.0 9.0 0.00 0.00 0.00 47 1016.8
20260901191359 97 350 4.0 9.0 0.00 0.00 0.00 46 1016.8
20260901191300 97 276 6.0 9.0 0.00 0.00 0.00 47 1016.8
20260901191158 97 345 4.0 9.0 0.00 0.00 0.00 48 1016.7
20260901191058 96 24 8.0 9.0 0.00 0.00 0.00 47 1016.8
20260901191004 96 20 3.0 8.0 0.00 0.00 0.00 47 1016.8
20260901190904 96 10 4.0 8.0 0.00 0.00 0.00 46 1016.8
20260901190759 96 6 5.0 8.0 0.00 0.00 0.00 45 1016.8
20260901190658 97 101 1.0 8.0 0.00 0.00 0.00 45 1016.8
20260901190558 97 23 2.0 8.0 0.00 0.00 0.00 46 1016.8
20260901190500 97 345 2.0 8.0 0.00 0.00 0.00 47 1016.8
20260901190259 96 24 7.0 9.0 0.00 0.00 0.00 46 1016.8
20260901190158 96 26 2.0 9.0 0.00 0.00 0.00 45 1016.9
20260901190058 96 359 7.0 9.0 0.00 0.00 0.00 46 1016.9
20260901185858 96 26 3.0 9.0 0.00 0.00 0.00 47 1016.9
20260901185759 95 333 4.0 9.0 0.00 0.00 0.00 46 1017.0
20260901185658 96 17 1.0 9.0 0.00 0.00 0.00 47 1017.0
20260901185500 95 352 4.0 9.0 0.00 0.00 0.00 48 1017.0
20260901185358 95 341 7.0 8.0 0.00 0.00 0.00 48 1017.0
20260901185158 95 22 2.0 8.0 0.00 0.00 0.00 47 1017.0